GFSCGP_700_rhum_123.txt.gz
RH
38 26 27 27 26 18 20 15 22 15 13 12 11 9 8 6 5 4 6 8 10 13 16 16 14 16 22 26 28 30 30 29 26 20 23 26 28 32 34 27 27 28 29 30
38 26 26 24 20 18 16 15 14 14 14 14 11 8 8 6 4 7 10 11 16 17 16 15 18 24 32 35 36 35 35 31 24 24 25 29 32 34 32 34 34 31 31 33
44 38 33 30 24 25 22 20 20 17 15 13 10 6 6 7 8 10 12 17 17 16 14 17 28 36 39 39 38 36 36 32 27 26 27 30 32 31 38 39 38 31 32 30
45 41 38 35 31 28 20 20 18 16 15 15 17 20 12 12 13 15 16 18 17 15 23 34 38 38 38 38 36 35 36 34 31 32 32 33 29 37 45 45 40 34 36 30
48 41 35 30 27 24 21 21 19 18 18 20 20 26 15 15 16 18 18 15 20 29 35 36 37 36 37 37 36 35 35 35 35 36 33 16 20 35 40 41 42 45 49 44
40 39 34 28 26 23 21 22 24 23 24 42 28 31 20 19 17 16 18 26 33 35 35 35 35 34 32 29 34 35 37 39 41 37 24 12 6 8 8 11 8 7 7 7
43 39 35 32 30 27 25 25 29 49 55 59 53 58 19 23 21 25 31 36 37 36 37 37 35 25 20 16 16 22 26 32 35 28 13 6 7 7 8 8 8 8 8 9
38 46 37 36 32 31 29 29 32 44 53 70 58 53 23 21 21 26 35 36 38 35 30 26 18 13 12 11 10 11 14 14 10 8 6 7 8 8 9 9 10 11 14 16
41 58 50 43 40 40 36 36 41 41 74 84 32 23 17 23 26 32 35 23 15 13 12 12 12 12 10 9 8 8 8 8 7 7 8 8 9 10 10 11 12 14 17 18
46 56 68 56 48 43 52 49 53 41 71 69 50 40 28 30 30 37 30 23 18 12 9 10 10 10 8 8 8 8 8 8 8 8 9 9 10 11 12 12 13 15 18 18
42 47 72 64 52 51 49 55 50 60 68 76 72 27 17 28 40 38 36 36 12 12 14 12 11 10 9 10 10 10 9 9 9 9 10 10 11 12 12 13 14 15 18 19
45 49 62 62 59 59 64 62 63 55 66 72 76 33 12 15 33 43 33 17 20 17 14 12 12 13 11 11 10 11 12 11 12 12 11 11 12 13 14 15 16 17 18 19
60 58 63 66 64 62 65 53 58 58 60 64 61 20 13 13 16 19 20 23 20 12 12 13 14 15 14 12 12 14 15 17 16 15 15 16 16 16 17 19 23 22 18 19
57 51 48 39 39 45 50 41 49 61 73 61 38 16 13 14 19 23 23 18 16 16 14 11 10 13 15 16 15 14 15 17 20 19 18 19 19 17 18 22 26 27 19 19
47 37 33 30 29 28 27 32 38 40 33 49 13 10 7 15 15 18 16 13 10 9 10 10 10 11 12 13 17 18 19 22 26 25 26 30 26 22 24 25 26 28 24 20
36 32 25 16 16 17 16 14 16 19 24 25 18 11 19 18 16 13 13 11 9 9 9 9 11 12 12 13 15 21 22 24 27 26 32 41 37 33 31 28 25 25 25 21
36 30 26 22 24 19 18 15 14 14 13 15 19 18 19 18 20 20 17 18 17 11 10 12 12 13 14 16 17 16 19 28 28 28 33 43 46 40 41 38 34 32 30 24
25 26 26 27 23 29 13 12 13 15 16 17 17 21 22 22 19 18 21 18 18 18 20 15 15 14 15 18 21 20 18 23 28 29 29 36 46 47 46 38 38 34 35 26
24 28 38 42 40 19 18 17 17 18 20 19 23 27 25 22 17 16 21 20 19 18 20 26 25 24 24 26 25 22 19 19 24 29 33 43 58 61 56 47 44 41 40 29
32 36 38 44 45 23 16 17 18 19 21 17 20 20 21 25 25 22 22 22 24 28 28 28 28 28 28 28 24 20 21 21 23 33 40 57 72 68 63 60 49 46 43 30
26 36 42 50 39 20 17 20 24 26 23 27 29 33 34 30 29 26 27 27 28 28 31 32 31 31 30 30 23 19 20 23 28 29 33 43 50 58 63 54 50 48 44 31
21 23 27 44 57 30 19 26 32 34 39 38 35 33 32 29 26 26 27 27 28 28 29 34 34 31 31 31 28 26 25 28 30 34 37 40 47 58 60 57 56 54 45 29
26 23 21 23 22 24 26 30 34 41 43 39 31 26 26 25 25 25 23 22 23 26 30 32 33 30 30 32 29 24 20 23 31 37 42 46 49 54 57 58 58 54 41 27
27 27 29 30 31 33 34 42 45 44 39 30 29 28 30 31 30 27 24 24 28 33 37 38 35 32 31 31 26 21 16 17 29 39 47 55 58 58 61 64 64 55 40 27
38 39 36 38 39 41 45 48 40 34 34 35 34 32 27 24 21 20 24 30 36 42 44 40 37 34 34 31 21 17 18 24 37 45 52 62 66 67 69 69 66 52 35 27
37 39 44 47 49 54 47 41 37 35 31 27 25 21 17 17 17 17 24 34 38 40 40 36 29 23 18 17 18 20 27 40 46 49 55 66 70 70 71 71 66 51 30 30

GFSCGP_700_rhum_126.txt.gz
RH
62 44 51 44 34 25 24 26 26 27 26 27 24 21 14 8 7 6 4 4 5 7 9 11 15 17 16 14 15 20 25 28 31 30 22 22 24 27 31 32 30 34 32 27
40 36 38 33 29 25 27 24 27 22 18 18 16 13 10 9 6 5 5 5 7 10 12 16 17 16 14 19 28 34 34 34 34 31 24 25 26 30 30 27 33 36 28 25
36 38 35 26 20 19 24 20 20 17 14 13 11 10 7 6 6 4 5 8 10 13 17 17 15 16 28 34 35 34 32 32 33 29 27 28 30 28 17 22 33 33 30 36
34 32 30 25 22 21 18 19 18 17 14 31 11 29 7 5 5 6 9 12 14 17 18 16 21 32 34 33 34 33 30 30 30 30 31 32 21 13 8 22 29 33 37 40
44 44 42 35 28 24 23 20 17 14 12 13 15 21 20 10 11 13 15 17 18 18 17 28 31 32 31 28 24 27 30 32 33 35 33 27 19 6 9 11 12 7 7 7
41 38 34 31 28 24 22 17 15 16 18 45 23 31 21 18 17 17 17 17 17 26 32 33 32 32 25 18 15 11 14 20 24 19 17 16 6 6 7 7 7 8 8 9
43 38 33 28 25 21 18 20 50 66 56 51 38 47 19 20 21 19 21 26 32 34 34 33 32 28 16 11 10 9 8 9 9 9 11 7 6 7 7 8 9 10 12 14
39 54 36 32 27 28 24 25 55 81 42 49 42 57 37 19 19 22 25 33 36 35 28 19 14 12 11 9 6 5 5 6 6 6 7 6 7 8 9 10 10 12 13 16
39 55 42 36 30 30 29 29 34 33 45 57 41 22 18 25 22 26 30 32 22 15 12 9 8 7 6 6 6 6 7 7 7 8 8 8 8 9 10 11 12 12 14 16
37 64 57 43 38 40 36 37 47 36 60 44 43 37 29 24 29 31 39 24 23 22 11 9 8 7 7 7 7 8 8 9 9 9 10 10 10 10 12 13 14 14 14 16
42 40 68 55 44 45 40 44 41 42 54 49 34 25 18 19 36 36 35 36 32 14 14 13 12 11 11 11 11 10 11 12 12 12 11 11 11 12 13 15 16 16 16 18
38 43 85 63 48 45 43 42 44 49 62 65 62 32 13 13 24 45 45 30 20 17 16 13 14 13 14 13 14 15 15 15 18 17 16 15 15 15 14 15 17 18 21 23
47 46 78 60 59 53 50 41 42 46 47 66 41 23 13 15 20 22 22 22 22 19 14 11 10 10 10 11 14 16 16 18 19 18 20 21 20 19 18 18 19 20 23 27
53 46 46 41 49 46 46 41 46 60 70 55 43 26 18 19 22 22 22 20 16 13 10 10 9 9 10 10 11 13 15 21 22 21 21 25 29 28 25 26 26 25 25 26
55 45 44 43 40 38 38 39 39 45 42 50 35 14 12 21 20 17 16 13 12 11 10 9 9 9 10 11 12 13 14 17 24 24 25 30 38 39 38 40 40 38 34 31
36 28 23 18 17 17 15 17 20 22 26 26 17 11 22 24 18 15 15 17 16 16 16 16 13 11 12 11 12 13 15 18 22 24 27 35 40 43 43 48 51 50 46 39
30 27 22 24 23 22 23 13 15 14 14 16 20 20 25 18 15 17 16 16 16 17 17 17 18 17 14 14 14 15 18 22 22 20 22 30 37 38 42 53 60 64 58 51
20 23 24 25 25 34 16 16 17 18 18 18 19 24 17 14 13 16 23 22 21 19 18 22 23 24 24 23 23 25 26 28 27 24 22 28 36 43 51 60 69 74 70 61
24 27 26 34 30 19 15 15 16 17 16 14 15 17 20 18 17 25 27 26 26 24 23 22 26 29 30 30 29 29 28 28 24 25 26 31 44 54 62 74 85 88 79 69
25 27 31 37 48 16 16 15 15 19 21 18 18 19 26 32 29 28 26 25 26 27 26 25 26 26 27 29 30 29 26 26 20 23 24 27 35 44 52 73 83 89 86 77
28 33 41 52 48 20 18 19 21 29 23 22 32 38 35 33 28 25 25 26 26 25 24 25 26 27 30 32 32 28 26 27 24 24 25 29 35 42 47 57 72 86 100 82
22 24 29 37 41 36 22 24 30 32 33 36 42 42 33 28 28 30 31 31 29 27 25 25 25 28 32 34 34 31 31 31 29 26 24 30 38 42 46 56 82 100 100 82
27 25 25 25 27 22 21 23 31 36 41 43 38 32 33 34 32 28 24 22 21 22 25 28 32 35 37 36 35 34 34 31 27 23 18 22 38 47 52 57 75 96 81 74
29 27 28 28 28 30 32 34 35 43 42 36 35 34 31 26 19 17 17 18 22 28 32 35 37 37 36 35 33 31 28 23 19 18 20 29 42 50 58 64 68 70 72 77
31 32 34 37 36 36 39 43 44 42 38 36 32 27 23 19 20 20 22 22 21 20 20 20 18 18 18 18 18 18 19 20 23 29 38 45 48 52 58 68 72 73 75 79
35 34 36 38 41 46 48 46 41 35 32 30 26 22 22 23 25 26 26 26 26 27 29 31 31 31 30 27 25 25 25 30 34 37 41 44 47 54 63 67 73 80 85 88

GFSCGP_700_rhum_129.txt.gz
RH
78 56 53 45 44 40 38 43 37 33 28 32 29 28 25 21 19 17 12 8 6 4 4 5 8 10 13 17 16 13 16 24 27 28 29 28 21 22 22 26 25 22 28 31
69 54 51 46 43 35 39 36 43 28 28 29 29 25 24 21 13 9 7 6 4 4 5 8 10 14 17 16 14 24 28 28 27 27 29 27 22 24 27 27 17 23 30 29
64 65 51 42 34 34 35 36 40 27 24 19 17 17 14 13 11 7 6 5 4 4 8 10 14 17 17 17 28 28 28 27 25 28 28 26 26 28 22 11 14 22 24 22
46 39 37 38 33 44 31 34 30 22 16 31 11 28 23 8 5 5 5 4 5 8 10 13 17 16 20 28 27 21 22 26 27 26 27 28 29 22 13 7 8 7 8 9
51 41 56 37 24 36 25 16 16 16 35 16 18 23 16 10 6 7 6 8 11 14 16 18 16 25 28 27 19 15 11 14 21 29 31 29 21 14 5 6 6 6 7 7
37 36 35 28 24 22 19 18 16 14 25 42 36 31 20 24 20 12 14 16 17 18 16 19 28 30 30 26 14 10 8 8 10 14 13 11 10 5 6 6 7 8 8 9
40 35 33 33 27 24 19 37 66 73 64 50 36 34 20 30 18 19 17 15 17 23 30 32 31 28 22 13 10 9 6 6 6 7 7 7 6 6 7 7 8 9 10 11
52 63 36 30 49 50 42 36 72 80 42 51 34 47 39 18 17 18 20 23 29 32 33 28 16 10 8 8 8 6 5 6 6 6 6 6 6 7 7 8 9 10 11 12
49 60 33 27 24 27 24 38 29 48 33 43 39 37 22 18 23 20 24 28 31 26 17 15 14 9 6 5 6 6 7 7 7 7 7 7 7 8 8 9 10 11 12 13
44 66 69 32 26 26 31 31 40 37 64 38 40 39 49 22 27 26 31 34 25 23 23 14 8 8 8 8 9 9 9 9 10 10 9 9 9 9 9 10 10 12 13 14
34 51 63 36 36 57 37 42 38 48 49 47 22 33 18 17 32 35 40 33 33 38 24 11 11 11 10 10 10 11 12 12 10 10 11 12 12 12 12 12 12 13 15 16
39 69 71 69 35 33 40 64 51 40 48 48 46 33 14 13 26 38 39 46 39 17 11 12 11 10 10 11 11 10 10 11 13 12 13 14 16 17 18 18 18 17 17 18
40 68 71 58 46 40 39 35 41 55 50 53 36 29 15 15 20 18 16 14 14 15 13 11 10 8 8 8 8 8 9 12 14 16 16 17 18 20 22 24 24 24 25 25
44 58 68 49 62 61 50 36 36 50 61 42 42 32 18 26 36 17 12 15 17 14 13 13 12 9 8 8 8 9 10 11 13 15 16 19 22 26 30 32 30 34 37 37
50 71 44 45 36 42 52 42 39 40 40 52 40 32 38 38 20 13 17 16 15 16 15 14 13 13 14 13 10 10 11 12 14 15 15 18 27 32 36 39 42 44 46 50
50 32 31 28 26 23 21 22 27 29 33 36 34 27 29 18 19 18 16 16 16 16 17 17 16 16 16 17 16 14 14 14 15 17 20 25 26 28 38 43 47 49 52 55
28 23 20 42 17 17 20 9 9 10 10 12 50 39 46 21 18 16 18 16 21 24 23 22 20 19 21 24 24 22 21 23 25 27 28 29 29 29 32 45 53 56 64 70
20 22 21 40 24 40 21 14 14 14 17 18 17 22 22 18 16 18 19 27 29 26 23 24 25 25 25 26 28 29 31 32 32 32 32 32 30 31 33 40 54 68 74 80
20 40 59 54 40 31 17 15 15 16 17 16 18 20 19 17 18 36 30 26 24 24 25 26 26 26 26 27 27 28 29 30 32 32 28 26 24 27 29 31 43 63 75 84
23 27 54 57 46 19 23 16 15 19 31 19 18 19 21 34 35 32 28 27 29 30 30 29 28 26 26 27 28 29 31 34 34 30 30 28 27 28 30 38 46 57 64 76
31 40 56 64 56 39 19 18 18 26 27 19 21 30 36 36 32 31 32 31 27 24 22 22 23 25 27 29 29 30 31 32 31 32 32 31 29 28 30 37 44 55 66 89
22 28 36 60 59 44 22 18 18 26 26 31 34 38 34 33 34 30 24 20 18 18 19 20 21 25 28 29 29 29 30 30 30 30 31 30 26 24 20 27 40 49 63 96
27 24 30 23 40 24 20 21 21 22 29 35 41 36 35 32 26 20 18 19 21 21 21 20 20 20 19 19 19 19 18 17 16 16 17 18 20 22 26 35 45 55 64 80
28 28 26 26 27 26 26 26 27 32 35 42 39 35 29 24 20 22 23 24 25 25 28 30 31 30 31 32 33 36 38 35 29 24 23 25 30 36 41 46 50 58 67 76
29 30 30 31 33 34 33 32 35 40 44 41 34 29 26 22 21 25 33 38 38 37 36 35 34 34 34 33 34 36 41 49 54 55 54 53 55 56 56 54 55 64 76 83
32 30 31 36 35 40 38 41 44 48 42 33 30 27 24 24 35 41 40 35 32 31 30 25 21 19 25 33 40 43 47 51 56 62 62 61 63 67 70 75 81 82 84 86

GFSCGP_700_rhum_135.txt.gz
RH
93 74 73 67 60 40 32 29 22 25 21 22 27 24 24 23 24 22 22 22 24 22 20 13 6 4 4 5 8 11 16 15 19 19 18 17 17 20 22 20 18 20 23 21
83 79 64 54 43 43 34 41 32 26 22 24 28 23 26 23 21 22 23 22 21 19 14 10 4 4 4 8 10 15 16 19 20 16 14 19 18 19 20 19 20 23 21 8
77 63 49 52 45 44 40 43 28 27 29 30 28 23 21 20 21 24 24 21 13 10 6 4 4 4 6 10 14 16 18 20 14 10 8 8 13 20 23 24 25 22 8 6
64 55 56 50 51 44 45 43 33 28 27 27 27 22 22 20 20 20 17 13 10 7 5 4 4 5 11 15 16 18 22 18 11 9 8 6 6 11 17 20 15 7 5 6
62 57 52 49 46 41 44 41 38 28 26 28 20 20 14 15 17 12 8 6 5 5 6 5 7 12 16 17 20 24 22 18 12 10 5 3 4 6 7 8 7 5 6 6
59 56 48 46 44 43 44 38 28 32 28 39 22 17 25 24 19 15 11 9 10 11 13 15 17 18 17 23 25 23 17 11 6 5 4 3 4 4 5 6 6 6 6 7
60 51 46 46 45 37 35 28 36 32 41 55 38 25 18 32 31 29 21 18 18 16 16 16 18 22 26 27 20 14 11 5 4 4 4 4 5 5 5 6 6 6 7 8
46 63 40 37 33 29 26 28 22 45 71 68 41 31 22 30 27 24 20 18 20 20 21 25 28 30 22 16 15 8 5 5 5 6 6 6 6 6 6 7 7 8 8 8
46 51 48 35 27 28 31 44 43 40 51 47 27 32 42 45 36 19 17 16 17 19 24 28 25 19 20 17 9 7 7 6 7 7 8 8 9 8 8 9 10 10 11 10
44 47 50 44 33 29 30 27 28 43 56 54 59 42 37 40 28 22 22 23 23 27 27 24 24 28 29 17 7 7 7 7 8 8 7 8 10 11 12 13 14 15 15 17
46 32 44 36 30 24 24 24 33 34 47 81 68 49 47 38 17 24 28 28 30 31 30 32 32 16 8 8 7 7 7 7 7 7 8 8 11 13 16 19 23 23 22 23
51 42 36 40 50 30 23 24 34 35 45 44 46 42 29 24 26 30 35 36 30 19 15 11 10 9 8 9 9 10 9 9 9 8 8 9 11 14 15 19 22 23 25 29
59 54 58 51 46 48 29 29 27 34 44 41 41 37 32 34 28 26 24 15 14 11 8 10 12 12 11 11 10 11 12 13 13 13 13 12 12 13 14 15 16 19 24 27
57 56 48 30 27 23 25 20 29 34 38 40 38 34 29 31 30 20 18 15 13 10 11 13 13 14 18 21 20 18 16 18 17 16 16 16 15 15 16 18 24 28 29 30
45 52 57 46 48 36 22 18 24 28 31 32 35 39 40 37 32 31 34 27 13 14 14 14 15 24 24 21 22 24 24 24 24 24 24 24 24 25 27 29 30 32 32 34
40 40 46 46 40 36 31 32 33 34 33 34 38 43 42 43 40 34 19 16 15 15 15 21 27 25 23 23 24 26 27 27 26 26 26 26 26 26 26 28 29 28 27 28
45 40 26 28 31 26 20 21 21 20 22 24 29 27 39 34 29 25 23 17 16 16 27 27 25 26 28 28 27 27 26 27 27 27 27 27 27 27 28 29 28 27 26 25
36 30 20 17 18 30 14 14 13 14 13 18 20 18 18 15 21 22 16 16 25 31 29 29 29 25 22 21 22 24 25 25 25 25 24 25 25 26 28 28 30 30 31 31
22 19 18 21 30 17 12 18 16 11 14 10 10 17 15 19 25 19 31 33 32 31 30 24 19 19 20 20 20 20 20 19 19 19 19 19 18 18 17 17 17 18 18 22
19 18 21 34 28 40 22 17 14 13 12 12 13 14 18 20 20 35 34 32 32 27 20 20 20 21 21 22 23 25 26 26 26 24 24 25 25 26 27 28 27 25 22 22
24 25 22 27 34 17 20 26 17 18 15 14 15 16 18 20 31 35 34 32 24 20 21 22 24 27 29 30 30 30 28 26 22 16 8 5 6 10 18 29 38 43 45 45
20 18 21 24 30 27 22 25 18 15 17 21 26 28 30 34 36 35 31 24 22 24 28 32 33 32 33 32 31 26 17 9 4 3 2 3 4 6 7 11 26 40 47 51
26 19 25 21 23 22 29 24 22 21 19 23 25 25 34 40 36 30 25 24 27 31 32 32 34 34 26 17 12 10 6 3 2 2 2 2 2 3 7 12 19 35 50 55
29 27 28 28 26 25 23 24 26 26 25 24 24 28 36 40 34 28 25 24 26 31 36 38 37 35 37 40 34 22 11 6 3 2 2 2 2 2 5 12 21 26 35 45
36 34 34 32 29 28 28 28 30 33 34 33 33 37 43 38 31 28 27 31 37 41 44 47 50 53 54 53 46 32 19 10 5 3 3 2 2 2 3 6 16 28 39 49
37 36 37 38 36 35 31 31 34 37 40 40 43 46 43 34 31 31 32 38 43 47 49 52 55 57 57 50 31 14 7 5 4 4 3 3 3 3 3 3 6 25 27 40

GFSCGP_700_rhum_138.txt.gz
RH
99 90 78 76 72 46 37 26 23 25 24 22 19 18 21 24 21 21 22 21 23 25 24 22 20 8 5 4 5 7 10 14 15 17 18 12 9 16 19 20 19 19 21 23
92 83 76 71 66 47 39 22 22 22 20 21 19 18 25 24 22 22 22 23 24 25 23 21 14 6 5 5 5 8 13 16 18 18 11 9 8 7 8 15 20 23 23 19
88 80 71 67 53 44 43 32 23 20 23 27 24 24 22 20 21 22 23 24 23 21 15 11 6 5 5 5 7 13 16 18 22 17 12 10 8 4 6 11 14 14 9 5
87 70 66 60 49 47 43 48 28 22 23 27 26 24 17 18 19 21 24 24 23 19 10 7 6 5 5 7 13 16 19 24 22 20 14 10 5 3 4 5 5 6 5 5
72 65 52 50 44 49 41 45 36 29 29 24 28 23 20 21 20 20 21 22 16 11 8 6 5 5 9 14 17 21 25 25 20 13 7 4 4 3 4 4 5 5 6 6
62 57 54 52 50 48 42 46 39 32 28 41 22 24 12 17 18 14 13 12 10 7 6 8 11 14 17 20 25 28 25 17 14 8 4 4 4 4 4 4 5 6 6 6
63 56 52 50 50 48 45 37 34 40 45 54 30 21 17 24 23 22 20 17 14 15 17 16 16 18 25 29 28 21 16 16 8 4 4 4 4 5 5 6 6 6 7 7
57 61 52 50 45 45 39 29 23 40 59 68 43 30 16 18 29 28 28 24 20 20 20 21 25 29 28 24 18 18 17 9 5 5 5 5 6 6 7 7 7 8 8 9
54 57 51 46 42 41 41 30 41 37 59 40 34 27 28 24 21 21 19 19 22 23 26 30 29 26 21 21 24 25 17 6 5 6 6 7 7 8 8 8 9 10 11 11
41 52 53 44 36 36 36 32 41 43 57 43 58 43 26 29 31 28 22 25 26 27 27 26 25 24 26 28 21 8 6 6 6 6 6 7 8 8 9 10 12 12 13 13
37 37 52 40 37 30 29 29 31 36 46 74 72 44 34 39 28 25 27 29 28 28 29 29 30 30 16 8 7 8 9 9 9 8 9 9 9 9 10 12 14 15 14 16
45 38 44 41 34 27 32 27 30 30 38 49 46 42 43 34 24 24 33 34 34 32 15 9 8 8 8 8 9 9 10 12 13 13 13 14 13 13 12 13 16 17 16 17
54 48 42 38 40 38 27 25 22 27 34 32 36 32 34 25 26 31 36 33 16 14 12 9 9 10 10 10 12 16 19 19 15 16 20 18 16 15 15 14 15 16 18 22
63 49 41 35 33 31 29 22 23 25 35 34 32 32 32 28 26 25 21 17 14 17 9 10 11 11 11 17 22 21 19 19 22 23 24 24 24 23 23 23 23 25 28 29
55 51 44 30 33 29 26 21 20 19 19 30 24 29 29 29 28 24 22 26 24 20 11 12 12 13 23 24 23 23 25 26 26 26 26 26 25 25 25 25 26 26 27 28
44 49 56 56 47 45 42 24 20 22 25 26 28 28 30 37 32 30 34 26 16 14 14 13 14 24 26 25 26 27 27 25 24 24 24 24 23 24 24 25 25 26 27 28
42 41 33 35 36 33 28 28 27 23 20 20 27 24 32 33 35 37 35 24 18 15 15 19 29 29 28 26 23 20 21 23 23 22 20 19 18 18 18 18 18 18 19 21
44 40 29 18 28 26 18 16 16 20 21 20 22 24 28 35 34 32 22 22 17 16 29 32 30 27 22 19 20 20 19 19 19 19 19 20 20 20 20 21 22 24 24 23
42 35 22 20 21 12 12 15 16 13 10 11 15 21 27 28 24 18 21 18 30 32 30 30 26 20 20 20 20 21 23 24 24 24 22 18 14 10 6 5 6 8 11 18
19 23 24 28 25 26 22 18 15 18 13 11 14 11 11 16 18 20 21 32 32 31 30 23 21 21 22 24 26 27 27 27 26 21 12 5 2 2 2 2 2 2 3 4
22 23 21 22 22 11 14 17 18 15 12 10 10 12 15 17 18 19 31 35 34 31 24 21 22 24 28 29 29 28 23 12 8 6 5 3 2 2 2 2 2 2 2 3
19 16 18 24 24 17 16 20 17 14 13 14 15 16 20 26 29 32 35 36 32 25 23 25 29 31 32 32 26 22 29 34 31 20 10 6 4 3 3 2 2 2 2 2
24 18 21 17 18 18 24 24 23 22 22 20 22 25 25 23 29 36 37 32 26 25 28 32 33 36 38 39 45 47 49 45 38 25 10 7 5 4 3 3 2 2 2 2
30 30 29 28 27 27 29 28 25 24 27 26 25 24 24 27 34 38 35 29 27 29 32 34 40 44 48 53 56 54 49 40 24 13 9 8 6 5 4 3 3 3 3 3
37 35 34 33 34 35 35 31 29 29 30 33 34 33 33 36 42 38 31 30 31 34 37 42 46 50 53 55 52 40 23 12 10 10 9 7 6 5 5 4 4 4 4 4
34 36 39 40 39 40 40 39 36 32 35 37 40 40 41 47 44 36 33 34 37 40 43 47 52 54 54 36 18 15 14 14 12 10 7 6 5 4 4 4 3 4 4 4

GFSCGP_700_rhum_141.txt.gz
RH
98 89 90 60 52 42 45 35 42 43 46 43 32 23 17 16 18 18 16 18 20 24 23 22 22 21 14 6 4 4 4 8 12 15 18 14 9 9 8 6 10 17 20 22
93 84 83 74 69 50 41 28 34 32 32 28 26 21 18 16 16 21 25 22 23 24 22 24 23 20 16 8 4 4 6 10 15 17 20 16 12 11 5 3 6 11 13 11
97 86 80 75 66 50 38 28 26 24 25 24 22 26 22 18 24 24 21 22 21 22 22 21 18 12 8 6 5 5 9 14 17 22 22 17 13 7 4 3 4 4 5 5
94 87 78 72 58 49 40 31 22 19 19 23 21 23 16 18 19 20 21 22 23 24 23 21 12 8 7 6 5 9 14 17 21 24 18 13 6 4 3 3 4 4 5 5
91 80 76 72 57 48 42 40 31 24 23 21 26 22 20 14 14 16 19 21 23 23 22 17 10 7 6 6 10 15 18 23 25 18 16 9 3 3 3 4 4 4 5 5
88 74 71 66 60 49 41 49 40 35 30 38 26 25 16 20 18 18 20 21 23 23 15 10 7 7 9 14 17 20 26 25 17 17 9 4 4 4 4 4 5 5 5 5
96 66 61 59 54 52 45 45 38 49 51 62 29 27 19 18 20 20 16 13 13 10 8 8 12 15 16 18 23 27 21 17 18 13 6 5 4 4 5 6 6 6 6 7
64 71 61 58 53 54 53 36 32 52 59 61 41 28 19 19 20 19 17 15 13 12 14 18 17 18 22 27 24 19 20 23 22 10 5 5 5 6 6 6 7 8 8 9
59 62 59 55 51 51 48 36 38 30 48 48 39 27 23 19 19 25 26 25 22 20 19 17 19 24 26 22 22 26 26 19 7 5 6 6 6 6 7 7 8 9 9 10
54 56 59 52 49 48 43 38 39 40 60 36 49 32 18 18 14 19 20 20 19 18 20 22 24 25 24 26 27 19 8 7 7 7 8 8 8 8 8 8 9 10 11 11
44 48 59 49 45 44 44 40 34 40 40 70 64 30 18 21 21 28 26 22 23 25 25 26 27 28 28 23 9 8 8 9 9 9 10 11 11 12 12 12 12 12 12 14
50 43 51 46 38 37 33 35 29 32 37 52 46 36 29 25 29 24 24 26 28 28 31 24 10 8 8 9 10 10 11 14 17 19 18 15 17 20 19 18 16 15 14 14
52 44 49 48 41 35 31 27 26 27 32 39 44 28 40 37 32 25 23 28 32 29 14 13 10 9 10 10 10 13 19 22 21 20 21 22 23 24 24 24 24 24 24 24
60 49 35 32 30 31 29 24 23 24 32 28 27 26 30 28 23 22 24 25 24 14 14 22 13 10 12 11 14 24 24 23 22 24 25 26 26 25 25 25 26 26 25 25
61 54 52 41 32 30 30 27 24 25 23 21 17 18 22 24 26 25 22 18 18 22 19 14 12 13 12 15 24 26 25 25 25 24 22 21 21 22 22 22 22 22 23 23
44 52 45 44 40 40 28 27 29 23 23 25 20 14 17 26 28 27 28 29 30 26 17 14 14 13 13 21 27 27 25 22 20 20 21 19 17 17 17 16 17 17 17 17
45 42 40 43 41 44 38 22 19 19 16 13 16 8 14 20 25 31 33 35 33 28 16 15 14 17 27 29 26 21 19 19 18 18 17 18 18 18 16 14 12 8 6 7
43 44 36 22 32 38 22 19 19 19 15 16 15 20 24 28 34 36 35 36 29 16 16 16 30 31 29 25 20 18 18 19 21 23 23 22 20 18 13 6 3 2 2 2
52 47 29 21 22 16 14 12 15 14 14 18 21 22 21 25 30 33 33 29 16 17 29 32 30 29 24 20 20 21 24 26 26 26 22 12 6 4 3 3 3 3 3 3
30 42 37 26 20 17 16 14 12 14 12 11 9 10 16 19 22 18 18 20 20 30 33 32 30 24 21 23 27 29 29 30 26 15 13 20 22 16 10 8 7 6 6 5
26 29 30 25 20 8 10 16 18 15 10 10 8 8 12 10 14 16 18 19 27 33 33 32 26 23 27 30 30 31 31 27 28 38 38 35 28 16 9 9 9 9 7 6
22 18 18 25 25 15 13 16 18 14 14 12 13 12 13 15 18 24 26 29 33 35 32 26 26 30 32 32 34 35 38 44 45 41 31 18 13 12 12 12 11 10 8 7
24 16 19 15 14 17 21 24 23 22 23 22 19 18 20 25 24 24 28 35 37 34 28 27 31 34 34 36 40 42 47 49 45 33 13 14 16 17 15 12 10 9 7 6
30 31 29 28 28 28 30 30 30 29 27 26 26 25 25 26 26 27 33 38 36 30 29 32 36 36 39 45 49 52 52 47 35 15 14 15 16 18 16 11 7 6 5 4
39 39 38 36 35 36 36 36 36 33 29 30 30 32 33 33 33 35 39 40 34 32 36 38 37 38 43 47 51 52 49 41 31 29 22 18 19 16 11 6 5 4 4 4
32 31 32 32 34 36 36 38 39 38 34 32 32 34 38 40 40 42 45 40 36 39 41 39 38 41 46 51 52 51 51 47 29 20 20 18 12 6 4 3 2 3 3 3

GFSCGP_700_rhum_144.txt.gz
RH
96 98 97 87 80 38 49 52 56 56 52 51 51 37 40 33 23 22 19 19 22 26 24 22 22 22 19 19 13 7 4 4 4 7 13 16 17 14 14 10 4 4 5 8
98 98 88 85 80 55 43 47 52 54 51 46 43 30 23 24 19 19 21 22 24 26 22 22 23 23 23 21 17 10 5 4 4 10 15 18 18 16 14 5 3 3 4 4
93 96 97 79 70 56 45 40 44 48 52 40 32 28 22 18 21 21 18 20 20 20 20 21 23 23 21 16 12 7 5 4 8 14 18 19 17 14 5 3 3 3 4 4
97 86 94 74 60 51 40 31 36 34 37 29 29 29 18 17 19 19 20 19 20 21 22 22 21 17 13 10 7 6 5 6 13 18 20 18 16 7 3 3 4 4 4 4
98 95 95 66 58 52 36 28 23 28 27 25 27 21 15 15 17 16 18 19 21 21 22 24 24 21 13 8 6 5 6 14 19 21 19 17 7 4 4 4 4 5 5 5
96 95 84 76 62 50 42 36 30 29 29 38 26 24 14 14 12 12 15 16 18 21 23 24 23 16 10 7 6 8 16 20 22 19 18 15 7 4 4 5 5 6 6 6
95 86 76 75 70 58 53 40 45 52 52 62 29 28 15 16 14 12 14 16 20 22 24 25 16 9 7 9 14 17 21 22 19 21 22 15 5 5 5 6 6 7 7 8
95 84 64 61 62 55 51 35 38 59 68 61 39 30 16 16 18 19 19 19 17 15 15 12 10 12 14 16 19 23 21 21 23 24 17 6 5 6 6 6 6 7 7 8
86 69 65 60 56 55 50 39 33 31 47 50 38 25 20 18 18 18 20 20 17 15 14 15 17 18 18 20 22 22 23 25 21 8 6 6 7 8 8 8 9 10 10 10
61 64 64 61 57 57 51 43 39 36 56 43 46 32 20 19 20 20 20 23 24 22 18 16 16 20 22 23 24 26 24 10 7 7 9 11 12 13 13 14 14 15 14 13
53 54 63 58 54 52 49 46 36 40 38 61 48 27 20 19 20 20 26 25 20 17 16 18 22 24 26 28 25 14 8 8 8 10 14 18 19 18 18 21 22 21 20 18
53 50 58 55 49 46 45 44 38 33 38 50 42 30 23 18 18 22 24 24 21 21 24 25 29 24 10 8 7 8 9 10 14 19 21 20 21 23 24 25 26 25 25 25
63 50 57 54 48 40 40 38 39 34 31 39 47 26 26 27 26 26 26 24 24 27 29 27 13 11 8 7 9 10 10 17 23 23 23 24 26 26 26 26 24 24 25 25
62 46 42 46 40 38 35 34 28 32 30 26 28 24 23 31 28 27 23 21 26 30 28 14 13 17 13 10 12 12 16 22 26 26 26 26 24 21 20 22 22 22 21 20
59 57 44 39 35 31 29 28 27 25 26 25 21 18 16 20 25 26 25 23 24 22 16 19 17 11 12 13 12 14 20 26 26 23 20 18 20 20 18 17 16 16 17 17
53 52 45 48 44 37 31 29 29 25 23 24 24 20 18 16 19 21 24 24 23 24 28 25 17 14 14 13 16 24 27 24 19 18 18 18 17 18 19 19 18 16 11 6
44 44 44 43 39 41 37 27 19 22 24 22 21 19 18 15 12 16 21 28 31 30 31 28 14 14 14 24 29 27 23 19 18 18 20 22 24 23 22 15 6 4 4 4
45 45 41 27 31 45 23 18 17 16 18 20 20 16 11 11 15 24 27 31 32 34 32 16 15 20 30 30 28 23 20 20 22 25 26 26 24 15 10 15 17 14 10 8
50 51 39 27 26 20 18 15 17 18 15 14 11 10 13 20 22 22 28 32 36 34 23 17 26 32 31 29 24 22 23 27 29 30 28 23 18 24 30 27 19 12 11 11
45 50 48 30 24 15 12 15 12 12 12 12 11 10 14 21 25 19 26 38 36 22 18 24 34 34 31 25 23 26 29 31 31 30 28 29 36 36 23 13 14 16 18 18
38 38 46 42 25 11 9 14 19 16 11 10 10 10 10 12 23 31 24 20 19 21 25 35 35 32 27 25 28 31 33 33 34 35 39 44 42 28 13 12 13 14 16 19
23 21 21 34 26 14 13 14 18 16 15 16 12 10 10 12 14 17 19 20 26 33 35 36 34 29 27 31 34 34 35 38 42 44 46 43 38 30 27 28 22 19 21 21
25 17 17 13 12 12 22 24 25 23 23 24 23 21 16 15 16 24 26 25 26 32 36 35 30 30 34 36 36 36 38 44 46 46 45 42 42 42 35 22 22 23 17 10
30 27 27 27 29 28 30 33 32 29 28 28 26 26 25 25 26 27 27 28 32 37 37 33 34 38 41 38 36 39 43 45 47 46 44 43 41 26 24 22 13 7 4 3
39 38 38 36 36 37 37 37 37 37 36 34 30 30 30 31 32 33 35 37 39 40 37 36 40 43 41 37 38 42 45 48 47 46 45 28 25 23 15 6 3 3 3 4
33 31 31 31 30 32 34 35 36 38 40 40 36 34 34 35 37 40 42 43 44 42 41 41 44 44 40 38 39 43 46 47 48 38 24 24 18 7 3 3 2 4 5 6

GFSCGP_700_rhum_150.txt.gz
RH
76 76 98 90 98 81 64 56 50 56 40 46 64 64 67 62 50 40 39 36 31 27 25 22 22 20 21 20 20 19 17 17 14 8 4 4 6 13 15 14 14 8 3 3
100 93 96 98 99 98 67 56 51 49 44 53 60 65 65 60 48 40 36 36 33 31 25 23 21 22 23 21 20 20 21 20 17 9 5 5 9 16 15 14 13 4 3 3
99 94 82 90 98 87 63 51 59 43 48 51 60 62 60 59 48 44 38 35 34 31 25 23 24 26 23 22 21 22 22 18 12 7 5 6 14 17 15 15 8 3 3 4
99 95 84 85 96 80 62 52 53 46 51 50 52 55 52 55 51 45 38 34 30 26 25 26 24 25 24 24 21 22 18 13 8 6 6 11 18 16 16 14 6 3 3 4
97 99 100 99 93 73 56 54 58 52 46 50 48 40 40 45 50 46 36 30 28 26 24 23 26 27 26 23 21 21 18 11 7 6 10 18 18 17 18 18 8 4 4 4
94 98 97 96 84 69 51 56 58 53 48 53 48 35 34 32 39 40 27 27 28 25 24 24 25 25 25 22 23 22 16 9 6 10 18 20 18 19 21 19 6 5 6 6
98 94 88 69 60 57 48 53 65 67 62 54 43 30 25 30 24 28 24 23 24 24 23 24 23 23 23 24 24 21 11 8 12 18 20 19 20 22 17 6 6 6 7 8
96 92 78 65 57 57 50 43 51 73 56 49 32 33 28 19 20 17 18 19 21 22 21 22 22 22 22 24 24 12 11 15 18 20 20 21 21 14 7 7 8 9 11 14
97 87 80 72 58 50 43 41 32 38 39 35 40 25 24 17 15 14 14 14 15 18 20 20 19 20 23 22 12 13 18 19 18 21 22 20 11 7 8 10 13 16 17 18
81 78 73 69 61 53 43 34 37 32 53 30 38 38 22 17 14 13 13 12 13 14 16 18 20 18 14 12 16 18 19 19 21 23 21 9 8 9 13 17 19 20 21 23
75 71 69 66 60 62 49 43 37 38 32 24 22 18 13 13 12 11 12 15 17 19 19 19 17 15 16 19 19 19 21 23 22 10 7 8 12 17 20 21 22 24 25 26
67 64 74 64 56 55 53 45 40 36 45 41 36 24 15 12 16 14 16 17 19 20 20 20 21 20 19 19 20 23 18 8 7 7 8 10 17 20 23 26 26 26 24 22
59 61 70 62 54 54 52 48 45 45 42 44 35 26 24 18 15 18 17 19 21 22 24 23 20 19 22 23 22 11 9 9 7 8 10 14 19 24 26 25 23 22 21 20
65 55 58 50 50 49 51 49 46 44 43 33 32 21 30 23 20 19 19 23 27 26 22 20 22 24 25 19 13 13 13 10 9 10 12 18 25 24 22 22 21 20 21 20
78 61 44 48 46 46 43 43 43 42 40 35 31 24 19 24 23 22 23 22 20 21 23 25 25 26 23 15 16 14 10 10 12 15 23 25 23 22 20 20 22 22 20 16
68 66 58 44 40 39 36 38 35 37 34 34 29 28 26 21 18 16 22 22 22 21 23 25 25 25 18 24 23 13 12 14 22 27 26 23 21 21 23 24 24 22 22 26
63 63 53 55 46 47 41 31 29 28 28 27 26 24 24 22 22 20 15 14 21 25 26 25 24 23 30 30 20 13 16 26 29 27 24 22 23 26 28 28 27 29 34 34
59 57 51 44 44 48 30 26 26 26 24 23 22 22 22 22 22 21 15 16 22 24 26 29 31 34 36 32 17 18 30 31 30 27 25 26 28 30 30 31 33 35 37 35
54 52 49 39 38 32 24 27 27 27 24 24 23 22 22 23 23 22 20 15 14 21 33 35 38 39 36 22 18 28 32 32 29 27 29 31 31 32 34 36 38 38 38 35
57 56 52 41 36 26 16 19 18 17 18 17 16 16 16 19 21 22 16 13 17 27 33 39 40 39 32 21 27 34 34 31 29 31 33 33 33 34 36 38 37 37 36 37
60 60 59 51 42 30 19 11 18 17 15 13 11 10 11 13 14 16 19 23 28 32 37 40 41 36 25 28 36 36 33 31 34 37 36 34 35 37 37 37 38 39 41 44
28 46 47 52 48 40 18 12 19 17 15 18 20 14 9 9 11 11 14 16 28 35 42 40 29 27 33 35 36 35 33 36 39 40 38 37 37 38 38 40 44 47 44 30
23 20 19 22 21 17 26 26 25 24 24 25 25 23 23 19 12 11 14 21 26 26 25 28 30 30 34 36 36 35 39 42 43 42 40 39 39 40 45 48 50 40 26 18
32 25 19 19 17 17 17 23 32 33 34 34 32 29 27 25 23 20 18 20 25 29 30 30 32 36 38 38 40 43 45 45 44 42 40 40 44 49 52 48 28 19 6 3
38 37 34 32 34 36 36 36 36 36 36 37 37 36 36 32 28 27 27 29 31 32 35 39 41 42 42 43 45 48 48 46 42 41 44 50 55 52 33 19 6 4 4 5
31 32 36 37 29 28 28 28 28 29 31 32 33 34 36 38 36 34 33 34 36 38 41 44 46 46 48 50 51 48 45 43 46 52 57 55 33 16 6 4 4 5 6 7

GFSCGP_700_rhum_153.txt.gz
RH
84 87 84 53 62 80 88 99 66 45 52 51 54 56 62 54 63 64 59 47 41 38 38 34 26 23 22 19 18 18 18 17 16 17 13 7 4 4 6 14 14 14 11 4
99 81 71 78 89 94 98 97 55 42 50 43 39 58 64 66 69 64 52 41 34 39 38 29 24 24 22 20 19 19 19 19 20 20 15 9 4 5 10 15 15 14 9 3
94 98 98 95 97 99 97 78 52 56 56 42 37 56 73 70 66 55 49 42 37 34 28 26 25 24 23 22 20 20 20 21 21 17 11 7 5 6 14 16 16 13 6 3
98 95 100 100 97 98 77 59 53 54 56 38 46 49 68 66 63 54 47 43 39 36 32 28 26 25 25 23 21 20 21 22 18 13 8 6 5 11 16 16 17 17 9 4
98 99 96 96 84 99 91 62 75 51 43 32 45 46 49 65 62 53 48 43 40 35 30 27 27 27 26 22 21 21 22 20 18 12 7 6 9 17 17 17 19 19 10 4
98 98 99 100 90 95 79 64 66 52 36 49 35 40 42 56 59 56 48 42 37 30 27 27 27 25 25 24 23 22 22 22 18 10 7 9 17 18 17 20 20 12 5 5
97 98 100 98 82 80 61 64 71 72 84 57 41 38 29 44 47 48 44 41 36 31 27 25 25 27 26 25 23 22 24 23 15 8 10 16 18 18 20 20 12 5 6 7
98 96 93 77 79 63 58 64 64 77 57 52 51 41 28 36 37 37 47 43 31 28 27 24 26 26 25 22 22 24 25 22 10 11 17 19 18 21 20 10 6 6 9 13
89 88 76 65 60 57 58 60 56 50 46 41 45 37 30 27 29 29 37 34 23 24 24 23 24 22 22 22 23 24 22 12 12 19 19 19 20 20 9 7 8 11 16 19
85 86 75 68 57 52 53 47 54 39 60 42 39 33 34 18 22 22 19 20 19 20 22 23 22 22 18 20 23 19 13 15 19 19 20 21 20 8 7 9 14 18 20 22
78 70 71 68 65 57 46 48 38 39 39 33 32 31 32 23 15 15 14 14 15 17 20 21 18 17 20 20 15 15 18 19 19 20 22 10 7 8 10 16 20 23 25 26
69 70 71 74 59 56 52 52 44 31 32 34 27 31 24 20 18 14 13 13 14 15 15 16 18 19 18 16 18 20 19 20 22 10 8 8 8 9 15 20 23 26 26 23
69 69 67 62 58 54 55 56 46 46 44 37 34 32 22 16 14 14 13 13 13 16 17 19 20 20 21 21 20 20 22 18 10 11 10 9 10 13 18 22 24 23 21 20
67 65 62 62 55 55 52 50 46 48 46 32 28 28 34 22 15 14 15 14 16 17 20 22 24 25 21 20 22 24 15 13 13 12 11 12 14 18 24 24 22 20 20 21
76 80 57 54 51 58 46 46 47 45 43 37 30 29 25 27 22 18 18 21 22 22 24 26 24 21 22 26 25 17 16 17 13 12 13 16 23 26 24 22 21 22 24 24
94 90 65 46 49 49 53 47 41 41 42 39 35 30 28 22 23 23 23 24 25 24 26 26 24 26 28 27 21 20 26 21 13 14 21 27 27 24 23 23 25 26 27 28
85 80 75 57 48 47 48 43 34 35 33 34 32 31 27 24 23 22 22 24 24 25 25 24 26 28 29 25 25 32 29 17 15 24 29 29 26 25 25 27 29 30 32 33
70 68 70 62 44 49 35 34 32 29 27 25 25 24 24 22 22 21 18 18 20 22 22 24 27 29 28 28 34 34 27 18 26 31 31 29 27 28 30 31 32 33 35 36
56 66 59 52 39 36 32 29 26 25 27 23 23 23 22 22 22 22 22 19 17 15 20 26 30 31 34 37 39 36 20 25 31 33 31 30 31 33 33 33 34 36 36 36
53 56 59 50 40 30 20 22 24 26 26 24 23 22 22 22 22 27 25 24 21 17 17 21 27 34 40 42 41 27 23 31 34 33 32 33 36 36 35 35 36 37 38 38
60 67 64 55 45 37 26 17 16 20 22 17 15 13 14 14 17 21 23 24 19 14 16 28 36 40 43 43 32 24 34 36 35 34 35 38 39 38 38 38 39 39 41 45
54 64 63 59 53 49 29 15 18 21 15 18 20 15 10 9 11 14 16 18 19 22 30 36 41 45 42 28 29 35 35 35 35 37 41 42 42 41 41 41 42 46 50 46
25 31 38 46 44 27 19 18 18 18 18 22 24 24 23 18 12 12 13 14 19 26 35 40 40 30 29 31 31 34 36 38 41 44 46 46 44 43 43 48 53 51 34 20
34 28 20 16 13 12 19 20 22 32 32 34 33 32 29 26 24 21 18 17 20 24 24 25 28 30 31 36 39 40 41 44 48 49 47 46 46 50 55 54 38 20 6 4
42 39 36 31 28 32 34 35 35 35 36 36 36 36 36 35 32 27 25 24 25 28 30 32 34 38 41 42 44 45 49 51 50 48 49 53 57 55 38 21 7 4 4 5
31 32 35 39 37 31 30 28 27 28 28 29 30 32 33 35 37 36 32 31 32 34 36 38 41 44 47 48 51 52 52 51 53 56 60 56 36 19 7 4 4 5 5 6

GFSCGP_700_rhum_156.txt.gz
RH
93 88 86 53 56 55 76 76 77 49 84 90 80 63 61 56 49 36 39 47 64 75 62 46 44 50 34 23 19 18 17 16 16 16 18 18 14 7 4 4 10 13 12 12
92 82 68 67 90 97 97 85 66 43 68 99 79 59 56 64 59 57 44 51 56 65 53 40 43 43 28 23 20 18 18 17 18 18 20 18 13 7 4 6 13 13 13 11
95 91 93 91 95 97 95 100 87 62 81 90 56 54 51 63 71 81 64 56 56 52 46 38 41 36 27 22 21 19 19 18 19 20 20 15 10 6 5 9 15 14 14 15
97 98 96 98 98 100 96 86 86 99 84 66 49 55 57 60 77 83 79 70 57 46 42 42 40 32 25 24 21 19 20 19 20 20 17 12 8 6 6 14 15 14 16 17
97 96 99 98 97 98 94 88 99 96 64 53 40 42 61 62 79 79 80 71 51 39 39 41 34 29 28 25 22 21 20 20 21 20 19 12 7 6 10 15 14 15 18 16
100 100 99 98 94 97 92 92 88 96 64 64 40 41 50 62 60 74 70 54 43 39 36 33 32 31 27 24 23 22 22 22 21 22 18 10 7 8 15 16 15 17 16 7
97 97 99 98 98 90 78 80 98 99 76 82 39 43 46 44 42 64 60 51 46 38 37 35 31 27 26 25 25 24 23 22 23 23 17 9 9 14 17 16 17 17 9 6
97 96 95 91 96 78 59 67 66 75 86 85 51 45 39 60 54 53 60 47 42 36 33 29 29 28 27 27 25 23 22 22 24 24 12 10 16 17 17 18 18 10 6 8
98 90 82 71 69 64 62 68 64 52 68 70 48 42 44 50 54 57 56 52 45 38 34 29 26 26 26 25 23 22 22 22 24 16 11 17 17 17 19 20 10 7 10 15
90 89 72 65 64 58 58 71 83 61 96 76 57 40 36 38 46 52 51 45 41 39 30 30 27 26 24 22 22 20 22 24 16 12 18 18 18 20 19 8 8 12 17 20
86 80 73 68 62 64 60 76 56 56 52 92 63 45 33 24 32 46 41 32 33 32 23 26 25 24 22 22 20 19 22 15 13 18 18 19 21 10 7 8 11 15 18 20
80 70 82 72 62 57 55 60 66 66 59 59 36 45 31 25 23 25 27 30 32 24 22 22 24 23 21 19 18 21 16 16 18 19 22 16 8 8 9 10 12 15 20 23
68 72 80 65 56 56 53 53 55 49 48 49 51 42 32 27 18 18 19 18 18 19 19 21 20 18 17 20 20 17 19 19 20 22 12 12 12 11 11 12 15 21 24 22
72 68 66 79 78 64 59 52 45 46 47 43 31 39 42 28 19 18 16 16 14 14 15 16 16 18 20 20 21 20 20 23 20 14 14 13 11 11 14 20 25 24 22 22
75 75 72 61 57 62 58 52 51 45 38 44 35 34 33 34 23 16 16 16 16 16 18 20 20 21 23 23 20 21 24 21 16 18 17 13 12 18 25 26 25 24 24 25
75 82 78 54 46 54 50 52 50 44 43 39 38 34 31 27 28 22 21 20 18 19 22 23 24 25 23 22 23 26 23 21 26 25 17 14 22 28 28 26 26 26 27 29
87 86 83 72 53 47 48 46 48 44 36 34 36 35 34 26 24 26 26 26 26 28 29 26 24 24 25 27 28 27 24 30 31 25 18 24 30 30 28 28 28 29 30 31
74 79 78 68 50 67 36 38 40 41 31 27 28 31 31 27 23 22 20 26 25 24 22 23 25 26 28 31 30 28 32 36 33 21 22 30 32 31 30 31 32 32 33 34
69 70 67 54 50 40 34 32 35 36 30 25 24 26 24 25 24 23 22 19 19 18 21 25 28 30 32 33 32 35 39 39 29 22 30 33 33 32 33 34 35 35 36 37
62 62 64 55 47 42 26 21 28 28 27 25 24 23 24 24 24 24 24 24 21 19 18 20 23 28 31 35 38 42 43 37 24 30 35 35 34 35 38 39 39 39 41 42
50 65 61 57 58 41 35 27 18 24 26 24 22 20 19 19 18 21 25 25 25 25 22 21 24 27 34 40 44 46 42 26 32 35 36 36 38 41 42 43 43 44 47 51
43 61 65 63 57 55 32 26 16 24 19 16 18 16 12 10 11 14 20 25 29 27 23 21 24 36 42 45 46 41 29 34 35 36 38 40 44 46 46 46 48 53 54 42
28 39 48 52 47 43 30 16 15 19 18 21 25 25 23 17 11 13 17 23 26 27 27 31 39 43 46 47 33 33 33 36 38 40 44 47 48 48 50 54 56 46 29 16
37 35 26 18 19 14 21 27 25 29 32 34 34 34 32 27 24 20 17 17 20 25 31 36 42 43 34 32 32 37 40 42 44 47 49 50 52 56 58 48 29 16 6 6
43 43 40 36 30 28 27 24 33 34 34 36 36 36 36 36 33 29 26 24 23 24 27 28 30 32 34 37 41 44 46 48 51 53 55 58 59 47 32 18 8 6 5 5
32 31 33 38 38 37 35 32 29 29 29 28 30 31 32 34 35 36 35 32 29 30 32 34 36 38 42 45 47 50 53 55 58 61 59 45 32 20 9 8 7 5 5 5

GFSCGP_700_rhum_162.txt.gz
RH
100 100 89 82 82 86 97 96 96 86 75 81 69 64 41 36 47 58 67 56 84 85 72 74 65 86 89 77 51 38 26 21 19 18 15 14 14 16 17 14 9 5 5 9
98 84 78 94 97 92 92 95 93 77 73 83 69 51 45 45 44 54 62 54 74 73 68 65 78 94 92 77 63 39 27 22 20 18 16 15 16 19 18 12 8 5 6 12
97 71 83 97 97 97 88 81 67 65 63 78 81 57 35 39 39 41 54 54 68 50 48 52 72 92 92 79 67 40 28 23 21 18 17 17 19 20 16 11 7 5 8 14
82 87 97 98 97 98 96 79 92 98 98 95 86 82 38 30 31 37 49 57 56 57 54 46 54 88 90 82 64 40 29 24 22 19 18 19 21 19 15 10 6 6 12 14
96 90 99 98 97 99 94 98 96 97 98 98 99 98 66 45 33 36 44 42 54 45 52 43 47 92 90 83 60 39 30 26 22 19 19 20 21 19 17 10 7 9 14 14
77 97 99 89 99 95 99 98 98 98 98 97 86 98 63 56 30 36 56 53 77 66 60 52 63 94 89 83 58 37 30 26 23 21 20 21 20 21 17 10 9 14 16 16
74 82 86 84 87 96 98 98 95 97 98 92 71 98 63 54 40 42 51 66 61 61 58 51 68 84 84 77 50 35 29 27 24 22 22 22 22 23 19 10 13 17 17 18
97 84 83 82 80 81 83 94 98 96 96 77 86 93 62 45 46 40 51 57 57 65 61 69 72 76 74 64 43 34 30 28 26 25 24 22 24 24 16 13 18 17 19 18
90 80 69 80 76 79 73 82 88 93 79 96 64 56 49 40 38 35 51 64 65 75 73 74 72 67 71 52 38 34 33 31 28 28 24 24 25 22 14 18 18 20 19 8
90 95 72 74 72 75 79 78 87 92 96 92 74 57 43 48 42 46 44 52 68 74 79 68 60 66 58 44 40 38 35 35 33 30 24 26 26 16 19 20 21 18 8 8
89 98 67 67 79 71 76 82 73 81 98 97 95 67 55 51 40 42 33 28 49 75 68 65 65 61 50 46 42 39 37 36 34 27 27 27 19 20 21 22 15 9 10 10
85 95 86 63 71 75 62 65 74 79 96 98 98 70 48 56 60 59 59 43 54 79 67 60 56 50 45 42 40 39 37 37 30 28 27 21 22 22 23 13 13 12 11 12
92 91 86 62 66 66 67 76 74 75 80 87 98 49 47 62 47 59 64 67 75 77 69 58 51 46 43 41 40 38 36 28 30 28 22 23 23 23 15 14 13 12 13 19
97 90 91 88 83 77 65 70 66 66 75 90 74 53 47 43 44 59 68 74 81 77 64 54 47 43 41 40 39 35 28 30 29 24 25 24 22 16 17 17 15 17 22 26
92 90 88 83 83 75 61 62 62 63 59 78 55 50 50 50 45 53 65 68 70 69 62 56 49 44 41 39 34 28 31 30 26 27 25 22 20 23 22 19 20 24 27 28
90 87 88 78 70 65 54 47 57 56 53 54 45 42 38 42 44 50 64 64 62 61 57 54 44 43 40 38 31 33 30 29 28 26 24 25 28 27 23 22 26 28 29 30
87 89 88 80 67 60 47 43 46 51 47 47 41 39 35 37 42 40 40 53 57 54 51 46 41 41 38 35 33 32 32 29 28 27 28 34 34 27 23 25 30 32 32 33
77 84 84 79 62 67 41 38 42 42 45 45 42 38 37 30 38 36 34 32 31 32 34 35 34 33 32 33 35 32 30 30 30 32 38 39 33 25 26 31 34 35 35 36
74 76 81 74 67 50 31 32 40 43 41 42 41 37 35 31 28 34 35 32 32 31 34 35 35 37 38 36 32 32 32 34 36 40 43 40 28 27 34 36 36 38 39 41
47 78 86 72 64 56 39 43 32 44 41 35 32 29 27 30 26 25 30 34 37 40 42 41 40 37 35 35 35 35 38 40 43 46 45 32 30 36 36 38 40 42 44 46
40 60 79 79 72 50 40 34 28 40 32 30 27 25 24 23 26 26 26 24 28 34 36 36 38 39 38 38 38 40 44 45 47 48 34 34 36 37 40 42 45 47 49 53
39 43 61 77 72 57 45 26 24 30 26 22 20 19 18 15 17 19 24 27 26 26 28 33 36 38 40 41 43 46 47 49 51 38 35 37 40 43 46 48 50 54 56 47
41 36 41 48 41 36 37 28 23 25 21 23 25 25 24 19 12 13 17 29 32 32 34 37 38 40 42 44 45 48 52 53 37 36 41 43 46 49 51 55 57 47 30 18
42 42 42 42 31 28 19 25 21 23 24 28 31 33 32 27 22 14 16 28 36 37 37 36 38 40 44 48 54 57 45 36 40 43 46 50 52 56 57 47 30 18 15 15
38 41 35 34 36 38 24 19 22 23 30 32 36 36 36 35 30 25 21 22 27 31 33 36 41 48 54 56 46 37 39 43 47 50 53 56 56 46 29 17 15 17 16 16
21 26 27 34 33 38 34 36 36 35 34 36 31 32 34 36 36 35 31 28 28 32 37 43 46 44 38 37 40 43 47 50 53 55 56 45 30 20 17 18 19 18 16 12

GFSCGP_700_rhum_165.txt.gz
RH
66 76 68 86 90 100 100 100 99 89 88 94 76 66 37 51 52 48 50 56 60 74 70 71 84 80 90 80 82 50 36 26 22 20 19 16 12 12 13 16 15 12 6 5
83 68 79 84 90 98 95 97 93 78 67 92 88 61 45 60 50 49 42 60 67 70 82 78 94 90 83 93 87 57 40 30 26 22 19 16 13 14 17 18 15 10 6 7
96 67 82 100 100 100 96 96 87 89 86 85 83 53 39 25 31 46 41 46 66 75 99 96 96 93 85 99 88 61 45 33 27 22 20 16 14 16 20 18 13 9 6 7
64 67 90 99 100 99 99 100 98 97 100 96 87 82 50 38 39 29 35 39 56 59 84 89 79 73 72 100 95 76 70 43 30 24 21 16 16 19 20 16 13 9 7 9
64 76 100 98 98 100 84 94 99 99 97 99 100 98 73 66 59 36 31 36 45 55 67 76 68 61 74 99 99 80 88 50 31 25 20 17 17 22 19 18 15 10 8 13
70 79 89 87 86 95 92 99 100 100 98 96 80 94 65 65 53 42 32 29 42 51 62 62 72 63 82 100 99 84 77 48 34 26 20 19 20 22 20 20 16 10 12 16
69 65 78 85 88 82 88 99 95 97 97 90 82 96 70 50 60 50 32 29 35 42 48 44 52 63 89 100 98 86 58 47 33 25 20 21 23 22 22 23 18 12 16 17
96 70 69 74 84 92 86 89 98 96 96 92 92 93 61 51 49 48 38 30 42 35 42 32 39 50 88 100 100 84 52 40 30 24 23 23 24 22 25 24 16 16 18 18
94 82 67 86 81 85 81 88 88 98 93 96 78 69 55 48 45 48 41 39 56 53 38 33 48 66 96 100 100 95 51 35 30 27 26 27 25 25 27 23 17 20 20 21
96 97 68 73 69 78 80 83 95 93 97 96 84 73 54 51 50 53 49 53 55 40 38 51 48 68 96 100 100 77 46 38 33 30 30 31 26 28 28 20 21 20 21 11
92 98 75 67 66 73 92 78 85 97 95 97 95 86 53 56 56 46 40 62 66 42 51 52 53 80 99 99 99 58 43 40 38 36 37 32 28 30 23 23 22 22 12 12
95 97 97 62 64 80 90 81 94 98 90 95 98 82 57 58 50 50 46 50 45 60 61 70 83 85 95 100 70 53 45 43 44 43 41 29 31 27 25 23 22 14 13 12
88 96 95 64 61 67 75 76 95 90 87 90 97 72 56 83 71 66 53 46 58 59 88 92 88 86 93 82 60 53 48 47 47 44 32 33 29 27 25 21 16 15 15 15
87 90 93 96 86 89 94 71 71 90 80 76 71 60 49 68 70 74 82 73 68 62 94 90 83 84 77 63 58 53 50 48 44 32 35 31 28 26 21 17 18 19 18 21
93 91 85 80 79 84 77 61 52 58 63 77 57 58 50 58 58 69 86 81 76 89 90 78 68 63 59 57 56 53 49 38 33 36 32 28 26 22 21 24 23 21 23 26
99 95 89 69 73 73 71 56 52 49 56 56 52 48 49 56 46 69 81 84 88 91 84 74 62 56 56 54 52 48 35 35 37 32 29 26 23 26 28 28 26 24 26 29
72 88 91 77 67 61 49 44 40 44 51 52 51 48 43 54 60 61 73 82 82 70 66 63 59 54 53 51 45 34 38 37 32 29 27 27 31 34 34 28 24 26 30 33
65 87 91 82 70 70 41 42 34 35 39 46 50 49 44 45 60 60 54 80 78 62 59 58 57 49 49 44 38 40 37 33 30 29 31 34 38 38 32 26 27 33 36 36
60 86 83 83 76 54 34 44 35 46 39 41 42 41 45 40 49 47 43 44 52 47 47 50 48 46 44 42 40 37 33 31 32 35 37 40 42 37 28 30 36 36 38 39
40 74 90 84 74 67 40 40 32 48 42 40 36 31 35 38 35 47 38 34 33 33 34 33 36 40 41 40 37 33 34 35 37 39 42 44 41 30 33 36 37 40 42 45
41 51 71 87 87 55 42 34 35 44 34 30 27 23 23 26 34 34 40 36 34 34 34 36 39 41 40 37 36 36 37 40 42 44 48 45 33 35 37 40 43 47 50 52
39 41 48 75 84 61 45 25 26 29 29 26 27 25 20 17 22 32 28 31 34 34 35 39 39 39 39 39 39 39 42 46 47 50 47 35 36 40 44 47 50 53 51 41
41 40 42 45 34 33 29 27 26 24 23 26 29 31 27 18 14 20 30 30 30 32 33 36 39 41 41 42 42 44 48 50 53 46 35 39 43 48 51 54 52 40 30 20
43 43 45 43 35 40 32 22 23 20 24 30 33 34 35 26 16 16 25 34 34 33 36 38 38 41 45 45 46 48 52 54 42 38 42 47 51 53 52 42 32 22 21 24
26 28 34 30 34 35 32 20 22 21 26 31 34 37 37 34 26 19 27 37 40 41 40 42 45 46 46 48 51 55 51 38 41 46 50 52 53 45 35 25 21 23 26 27
24 24 22 27 30 30 36 32 34 35 34 36 36 31 34 37 34 29 25 30 36 38 39 40 41 45 49 54 51 40 40 45 50 52 53 47 38 29 21 22 24 26 30 29

GFSCGP_700_rhum_168.txt.gz
RH
53 55 62 75 87 92 100 100 100 73 81 100 94 77 48 69 69 60 53 50 46 25 41 54 66 68 97 100 100 100 82 65 42 29 24 20 17 12 10 10 14 15 12 8
66 55 68 78 90 100 100 100 95 84 80 100 91 79 69 50 46 50 44 43 37 29 45 56 71 80 95 99 100 100 95 73 45 34 26 20 17 12 11 13 17 16 11 8
68 56 70 95 96 98 100 100 100 100 97 100 100 83 60 44 31 25 37 34 36 31 44 60 75 80 85 98 100 100 96 72 51 36 26 20 16 12 12 17 19 14 10 8
53 56 75 81 83 99 99 91 100 98 99 97 96 84 71 61 44 40 23 20 31 32 45 60 78 85 91 98 100 99 99 76 56 37 26 20 15 13 15 20 18 14 11 9
60 70 85 73 84 97 82 100 100 100 99 99 99 97 59 60 48 33 32 24 23 30 39 57 68 81 96 99 100 100 100 97 60 39 26 20 14 14 18 21 17 17 12 10
59 65 69 77 82 92 90 97 78 99 100 98 70 90 57 46 44 39 44 46 22 28 39 47 76 93 98 99 98 100 100 98 67 41 26 18 15 17 22 20 20 18 14 13
75 54 67 71 74 83 92 100 93 92 98 88 67 98 64 54 57 59 58 48 25 28 43 54 75 95 85 96 100 100 100 99 91 48 28 19 18 22 22 21 23 21 16 15
97 80 61 66 80 92 94 99 98 96 98 77 85 93 51 60 62 55 58 34 32 29 41 51 70 74 83 98 100 99 100 98 100 78 49 29 20 25 22 24 25 22 17 18
92 88 68 70 84 78 96 96 96 98 88 98 73 71 79 65 62 54 50 54 32 31 38 58 74 80 86 100 100 100 100 96 83 49 37 29 27 26 24 27 27 21 19 20
94 95 69 63 67 71 83 88 96 92 96 95 82 84 97 88 64 63 60 53 31 28 46 62 74 69 87 100 100 100 100 99 70 45 30 29 30 27 27 29 26 22 22 21
92 97 72 74 65 75 81 94 96 98 98 97 95 81 97 95 98 62 68 46 37 35 48 50 77 69 76 100 100 100 100 67 49 37 31 30 32 28 30 30 24 22 23 18
89 95 100 61 60 77 76 82 91 98 91 96 98 84 91 94 96 71 59 70 69 62 63 54 62 62 67 100 100 100 100 83 54 36 34 38 36 30 33 28 24 24 19 15
87 97 95 69 60 68 84 84 90 99 99 97 97 72 83 92 93 68 58 53 66 66 62 42 64 78 100 100 100 98 92 72 56 45 44 46 32 34 31 26 25 19 16 16
78 84 93 92 83 86 92 76 79 88 98 86 81 83 62 92 95 79 60 55 58 71 55 46 67 96 100 100 100 94 83 62 46 54 50 38 35 32 28 25 21 18 20 21
77 95 93 90 84 79 78 71 63 71 66 86 57 80 59 91 94 96 70 58 54 63 72 72 76 98 100 100 99 94 71 50 56 54 40 37 34 29 26 21 21 24 25 24
59 70 84 67 61 68 64 49 44 35 44 48 53 55 56 82 94 96 70 75 63 79 83 85 88 96 100 98 89 68 58 56 54 36 38 35 29 26 23 26 29 30 27 24
52 59 95 88 58 59 45 42 44 34 35 46 45 47 54 63 86 98 98 84 86 94 88 80 77 77 81 76 70 60 56 45 36 40 34 29 26 27 30 34 33 28 26 28
49 64 96 88 71 68 41 40 40 34 44 43 42 48 48 55 80 95 100 99 100 93 81 73 64 61 63 60 56 50 39 37 39 34 29 28 31 35 38 36 31 27 30 35
40 70 94 88 85 54 38 43 37 42 45 41 39 35 46 52 72 74 94 97 95 88 73 64 59 54 52 51 46 38 37 38 33 30 31 35 38 41 40 34 28 34 36 39
36 54 89 92 85 74 40 42 29 47 39 28 27 26 39 44 58 68 73 87 82 74 69 61 56 48 48 44 41 40 37 33 32 34 37 41 44 45 35 32 36 39 42 46
40 48 68 88 95 50 42 26 36 38 33 29 30 27 23 38 42 60 52 45 47 59 57 53 50 47 45 43 40 37 34 33 36 40 44 46 47 36 34 38 41 45 49 50
43 42 45 72 90 62 38 32 31 31 28 28 35 29 25 19 37 39 53 45 41 39 42 45 42 41 40 40 38 35 35 38 42 45 48 50 38 36 41 45 48 50 46 32
40 40 41 43 38 38 33 27 23 23 25 26 34 35 30 19 19 36 38 47 44 46 43 42 45 43 41 38 37 38 39 44 47 50 52 38 39 44 48 50 49 36 28 24
37 40 38 40 36 39 38 35 25 20 22 24 32 36 34 28 16 25 37 41 46 47 50 47 45 44 41 40 40 41 44 49 52 54 39 42 47 50 52 42 31 25 25 29
28 25 26 26 30 33 39 25 21 22 24 28 33 35 37 34 22 22 37 41 44 47 49 50 49 46 45 45 46 47 51 56 54 40 45 50 53 49 36 28 24 27 30 32
25 28 36 30 30 30 35 36 36 35 34 34 35 33 34 38 31 25 32 43 45 45 45 45 45 47 48 49 50 54 58 46 42 48 52 53 44 34 27 25 27 31 34 29

GFSCGP_700_rhum_171.txt.gz
RH
34 38 46 58 64 75 99 99 94 85 88 100 83 74 47 55 70 56 43 50 52 44 27 22 14 25 52 71 98 99 97 99 98 99 60 36 24 17 12 8 8 11 14 12
45 36 47 55 64 85 94 89 77 85 90 100 80 64 48 53 49 50 44 41 46 41 39 29 21 21 45 67 98 99 98 100 96 96 66 37 23 17 11 8 10 15 16 12
51 44 50 64 63 82 82 84 85 90 94 92 84 76 50 42 46 47 29 30 39 35 36 27 24 36 48 67 93 100 94 96 100 85 59 32 22 16 10 9 13 18 15 11
49 55 62 63 67 84 86 80 82 91 99 98 99 87 58 44 45 48 39 26 29 31 32 24 19 48 50 81 85 99 93 100 100 82 54 31 20 14 10 11 17 18 14 12
50 57 58 61 70 81 71 84 82 100 100 99 93 100 49 54 53 54 57 42 23 25 26 24 13 47 59 90 97 99 97 100 100 85 50 30 20 14 12 15 20 17 15 13
48 52 49 59 68 77 85 79 81 93 96 96 73 81 62 58 80 74 68 62 40 31 20 25 19 58 76 89 93 84 99 99 100 97 48 29 20 14 14 19 20 18 18 15
55 45 52 59 70 79 82 96 91 91 97 85 64 90 57 72 90 91 62 60 55 41 25 25 22 48 65 86 94 80 98 98 100 88 43 27 18 15 17 21 20 21 20 18
83 66 55 66 75 93 89 94 98 96 93 75 78 93 50 67 83 86 70 55 56 45 29 26 26 46 64 75 94 90 97 100 99 99 58 26 20 17 23 22 22 24 22 20
85 80 58 58 67 79 88 92 96 98 89 98 73 60 61 68 69 77 64 62 59 41 28 27 43 61 56 75 91 99 99 100 100 98 90 31 24 23 26 24 26 26 23 21
90 92 67 59 68 70 82 93 97 92 95 93 77 65 81 75 79 75 86 74 60 57 31 35 46 61 53 87 95 100 100 97 100 100 99 67 38 32 37 31 29 28 23 22
90 95 76 67 63 79 88 92 97 98 98 96 89 65 76 82 92 96 100 81 65 42 34 40 46 79 82 87 100 100 97 100 99 98 96 76 39 43 44 36 36 30 24 24
86 91 99 62 58 75 73 85 96 97 93 96 97 73 69 96 97 100 83 67 53 32 33 50 60 71 86 97 100 100 100 100 98 72 58 47 33 36 32 34 32 26 24 22
85 90 93 53 61 69 84 90 98 98 98 94 96 68 64 95 97 87 68 68 58 36 50 72 85 81 98 100 100 100 99 98 99 88 45 40 38 38 34 36 29 26 23 18
79 86 80 76 62 77 96 72 79 97 100 83 80 82 58 88 82 81 65 68 83 79 80 69 79 90 99 99 99 99 100 100 95 46 42 44 46 35 36 33 26 24 19 20
66 61 64 52 50 58 72 66 57 63 49 92 45 51 55 75 85 88 68 70 71 84 77 76 69 96 98 99 100 100 100 99 91 57 64 61 47 38 36 28 24 21 24 26
64 63 62 33 54 59 64 50 45 45 39 48 48 46 51 65 92 100 82 67 76 73 78 62 70 94 87 99 100 100 100 96 94 74 70 60 38 37 29 25 24 28 30 29
70 59 71 57 52 54 46 46 43 36 49 47 43 40 48 66 92 97 88 73 75 94 80 72 82 91 100 98 100 100 95 92 86 63 62 45 37 29 26 28 32 34 31 28
51 56 74 75 68 63 41 42 42 40 38 34 34 36 60 60 96 100 100 95 94 91 91 95 96 100 96 100 97 90 87 80 74 47 48 37 29 28 34 37 37 33 30 31
45 59 77 87 90 45 40 45 30 46 34 32 38 32 57 64 85 99 100 99 100 96 80 78 83 89 90 90 84 79 65 54 46 47 34 29 33 40 42 41 36 30 34 37
41 48 76 92 92 78 38 34 30 44 37 30 39 34 32 53 54 78 99 99 96 86 75 69 69 72 79 71 64 54 45 48 39 32 34 41 45 46 44 38 32 36 40 45
49 61 76 89 99 41 42 38 32 35 37 30 35 39 25 41 42 48 75 98 83 73 71 67 63 62 58 51 47 49 44 35 35 41 45 48 48 47 38 35 38 43 48 48
42 44 48 65 88 58 40 40 36 30 24 27 34 40 32 22 39 46 44 90 86 76 74 72 62 58 56 55 48 40 36 38 43 46 49 49 49 39 36 41 46 49 46 33
41 39 41 41 38 38 40 39 34 26 22 24 32 37 38 25 22 40 49 47 51 60 67 63 62 59 55 46 39 38 41 44 46 48 49 51 40 38 43 48 50 40 30 27
34 40 41 37 32 32 40 36 28 22 21 26 29 36 37 34 21 34 46 50 49 52 57 58 59 54 46 41 41 46 44 46 49 51 53 40 40 46 50 48 35 29 28 31
28 29 26 25 28 30 35 36 29 22 23 26 33 36 34 36 24 29 42 47 53 53 53 54 51 48 45 42 42 43 46 50 52 55 40 42 48 50 43 33 29 30 32 35
18 23 24 33 35 37 41 42 39 38 37 36 36 35 32 35 32 28 40 46 47 51 52 52 51 50 49 48 48 49 51 53 56 41 44 50 50 38 33 30 31 32 36 39

GFSCGP_700_rhum_174.txt.gz
RH
32 39 40 47 50 56 58 77 71 49 60 79 88 50 36 24 36 42 40 37 47 45 31 42 32 30 14 14 45 45 87 98 99 98 97 99 70 41 21 14 8 6 8 11
40 43 45 47 54 61 64 84 59 61 78 100 95 36 33 30 38 50 49 39 41 46 36 43 41 33 18 14 43 52 71 96 100 98 93 100 70 37 19 12 8 7 11 14
45 42 49 59 53 63 69 77 69 93 92 99 98 68 42 47 53 56 56 55 41 37 37 47 42 34 22 15 33 54 74 88 98 100 93 100 73 32 18 11 8 9 14 15
39 45 51 52 49 71 74 75 83 89 100 96 99 86 67 56 53 66 55 63 65 38 37 41 39 37 26 15 27 48 92 99 95 98 87 98 63 27 17 10 8 12 17 14
42 49 52 50 53 68 65 75 75 90 99 100 93 99 55 51 62 56 71 73 64 54 30 37 37 33 34 34 32 46 87 98 90 93 100 76 50 25 16 10 10 16 17 14
38 48 46 48 59 65 75 69 70 88 98 94 67 80 51 49 68 82 80 70 65 63 30 32 34 39 41 47 48 49 91 93 98 100 86 80 43 24 16 11 13 18 16 15
41 41 47 55 63 84 83 98 76 80 92 65 63 81 63 58 66 71 67 75 66 60 36 27 31 34 32 51 54 82 99 99 100 100 88 70 37 21 14 12 18 18 17 18
72 72 51 57 65 81 82 100 94 89 69 67 60 72 46 47 60 70 70 67 67 60 52 35 23 33 38 63 60 99 99 96 98 98 90 43 32 20 14 16 20 19 21 21
83 81 64 61 62 73 96 99 96 98 74 86 53 54 56 55 71 61 94 87 74 63 57 46 25 30 40 67 69 98 100 97 97 96 41 31 25 18 17 21 21 24 24 23
81 92 74 62 61 72 80 87 95 92 86 70 43 43 49 60 84 82 99 87 78 67 54 55 31 30 50 70 69 98 99 100 92 98 85 34 22 18 22 24 25 27 28 25
81 90 76 85 63 70 87 94 93 97 96 83 69 48 56 70 96 94 100 97 80 66 60 49 35 33 53 67 79 100 100 100 100 100 98 84 63 23 30 29 30 31 32 27
66 94 98 78 44 57 76 80 96 98 82 87 94 67 63 75 86 95 98 88 71 71 44 39 36 42 61 70 89 99 100 100 100 98 99 98 100 47 35 43 40 40 36 28
69 90 84 52 51 57 59 77 94 99 96 84 85 56 56 74 73 94 93 87 67 48 40 43 48 66 90 86 91 99 99 98 100 100 100 100 74 49 47 36 36 35 29 27
68 83 84 64 55 60 70 72 81 99 100 77 67 61 52 68 84 98 97 80 76 46 38 41 60 95 94 84 84 94 97 99 100 100 100 96 64 43 36 35 37 30 26 22
66 67 69 49 52 61 65 56 51 89 72 93 49 61 56 66 92 99 100 97 76 68 57 70 85 90 93 100 87 89 98 98 95 76 53 47 37 40 36 38 36 28 23 22
60 73 58 38 42 46 45 46 49 47 43 45 55 58 53 95 98 100 97 96 98 87 86 93 91 87 100 99 92 96 98 96 85 88 57 47 46 46 40 42 30 24 25 28
76 70 65 67 39 39 44 43 43 39 43 45 51 52 58 88 99 99 99 84 97 82 88 88 91 99 90 98 97 98 98 98 98 94 68 62 58 43 44 31 26 29 32 32
64 64 67 72 60 45 37 40 34 39 37 37 40 48 50 83 98 99 100 97 98 82 72 82 98 99 99 100 100 98 99 99 98 96 84 64 45 41 30 30 32 36 34 31
41 48 72 90 76 52 38 41 35 36 42 35 37 43 37 63 85 99 94 100 100 98 76 87 100 100 99 99 99 99 98 99 99 92 70 50 43 30 29 37 39 37 33 33
45 50 67 97 84 44 36 39 34 33 44 28 33 40 32 55 77 77 98 99 100 100 100 100 100 100 99 98 99 99 98 93 65 48 50 36 31 35 41 42 40 34 36 40
54 59 78 100 92 48 36 40 37 36 36 23 29 38 40 34 60 72 96 98 86 80 90 100 100 99 97 100 98 97 91 64 52 47 33 35 42 46 46 42 36 38 43 49
43 47 62 89 98 60 39 41 42 34 28 23 28 37 41 28 47 70 88 95 81 76 74 83 95 99 95 93 87 68 57 53 39 33 37 45 49 50 44 38 42 47 50 39
40 38 41 41 37 36 36 39 34 32 29 22 28 35 40 30 30 55 82 93 83 80 71 65 69 72 65 55 54 55 45 36 38 46 51 54 54 45 41 45 49 50 33 27
39 37 37 37 32 30 32 37 36 26 22 23 26 34 36 34 23 39 46 55 76 72 68 60 56 54 53 52 46 39 40 44 47 50 54 55 46 40 46 52 46 30 27 30
24 29 28 25 24 31 32 37 41 37 34 34 34 35 34 36 26 42 52 50 46 54 59 59 57 56 51 44 39 43 50 52 54 57 59 47 45 51 54 41 30 29 31 34
17 17 19 19 25 34 35 38 41 42 36 38 35 33 31 34 33 35 42 48 51 51 51 52 51 49 45 42 41 43 46 53 58 61 49 46 52 54 39 30 30 33 36 38

GFSCGP_700_rhum_177.txt.gz
RH
27 32 43 53 46 55 60 94 91 74 82 85 85 80 41 28 66 64 61 60 63 61 40 31 42 40 30 20 20 15 10 12 22 70 98 99 88 99 78 53 20 10 6 6
35 49 43 37 41 52 70 98 90 79 76 78 82 69 60 51 57 56 61 60 60 50 38 30 35 40 32 25 28 17 11 14 23 53 95 100 99 99 76 49 18 9 6 6
36 32 38 41 37 56 54 91 86 80 80 85 84 66 46 43 54 55 59 53 74 74 63 42 32 40 31 31 36 32 16 16 48 82 89 100 95 100 79 44 16 8 6 8
29 34 38 39 42 50 55 66 78 86 96 93 98 83 64 54 45 44 60 71 77 84 93 86 33 31 34 38 40 33 32 22 58 64 97 92 100 100 92 37 15 8 7 11
35 40 40 43 44 51 54 76 94 96 98 100 83 99 55 46 37 48 64 77 82 81 61 68 59 31 40 40 47 47 30 29 56 78 100 96 100 97 86 29 13 8 9 14
30 35 42 42 45 54 69 94 86 74 92 91 56 65 52 46 45 49 59 86 76 52 52 62 58 31 40 40 44 55 53 35 58 97 95 100 98 98 52 23 12 8 12 16
37 41 47 41 55 69 74 77 80 66 84 62 42 47 47 43 46 54 76 99 84 65 66 62 58 30 37 35 41 56 71 46 89 99 100 100 98 97 33 19 12 10 16 16
87 74 61 55 60 86 80 90 94 88 66 63 55 54 44 43 49 66 87 80 94 83 85 66 57 31 33 33 41 68 79 62 89 100 100 99 100 66 24 16 12 16 18 16
62 68 63 73 68 70 77 92 95 94 72 61 46 38 37 47 54 60 75 82 94 86 85 70 57 37 28 34 42 71 86 85 98 100 100 95 94 76 22 18 16 20 19 20
68 76 66 64 72 72 68 86 90 77 86 70 44 42 46 50 80 83 85 88 86 71 74 65 62 49 26 33 47 74 98 98 99 100 100 100 73 28 24 22 23 22 23 23
66 76 69 76 72 58 61 78 97 98 94 88 73 49 48 63 90 80 74 100 100 100 83 64 73 56 33 35 64 90 100 100 100 100 100 95 32 39 34 32 28 28 27 26
75 79 75 71 57 42 42 73 70 95 72 79 81 70 48 58 71 69 97 99 99 100 97 93 74 54 34 50 73 100 100 100 100 99 100 87 37 42 40 36 32 34 32 29
78 76 70 54 47 52 62 50 53 63 90 87 83 61 53 52 52 94 98 98 100 99 83 90 59 40 48 64 92 100 99 99 99 100 100 98 47 45 53 40 34 43 41 33
56 80 78 66 58 63 66 64 70 74 81 75 65 57 57 57 65 96 99 97 98 63 55 55 47 61 76 84 99 99 95 98 99 100 100 97 80 69 97 79 53 41 32 28
60 83 78 76 73 68 71 63 60 76 73 71 58 59 55 55 90 98 98 98 98 52 48 51 71 95 100 96 100 95 90 97 98 100 99 99 99 97 87 53 42 40 31 24
59 59 73 67 56 55 53 50 64 47 56 52 50 49 49 54 98 100 99 98 99 89 75 56 84 98 93 90 100 99 100 90 98 99 99 98 82 65 54 47 50 35 29 22
90 82 86 74 53 43 51 48 44 36 43 44 45 43 47 46 98 98 99 99 94 94 98 100 99 100 94 94 100 100 100 100 97 98 96 97 88 68 53 46 38 29 24 27
87 92 94 83 59 50 46 34 36 33 36 42 38 37 45 48 90 98 98 99 94 98 99 98 98 99 98 100 100 100 100 98 99 96 91 86 73 59 49 43 29 26 31 34
51 88 84 80 65 52 38 36 40 38 31 38 32 32 46 34 68 94 100 100 98 90 93 96 99 100 100 99 98 99 100 100 96 95 100 100 95 58 40 29 30 35 36 33
49 66 85 78 74 49 42 31 39 35 43 40 26 31 43 33 72 79 99 98 94 97 94 97 95 99 98 99 99 98 98 98 97 97 96 79 55 34 31 35 39 38 35 32
67 91 88 87 80 61 36 35 39 40 37 28 27 32 41 35 49 81 98 98 100 98 99 98 98 96 98 98 97 98 99 98 98 92 69 48 32 34 40 41 41 37 35 41
39 60 77 84 85 73 35 36 40 32 28 29 25 30 38 36 38 75 100 91 98 99 100 99 99 99 98 99 98 98 97 89 67 55 36 33 39 44 45 44 38 36 44 48
46 43 44 40 38 35 35 32 38 36 27 22 25 30 36 35 33 80 95 78 76 91 99 99 96 97 99 99 99 96 65 56 45 35 39 45 48 50 48 40 39 45 47 33
31 36 40 35 32 32 29 27 34 39 37 30 32 34 35 36 30 55 82 92 80 85 73 86 98 98 91 96 81 61 54 37 37 45 50 53 55 52 41 40 47 48 32 29
34 36 38 31 25 30 28 32 37 42 43 37 37 35 32 36 30 43 49 60 78 87 71 64 65 64 59 56 54 42 38 43 48 52 55 56 55 43 42 49 48 32 29 32
31 27 20 19 16 20 31 34 34 42 38 36 36 32 30 33 32 34 46 49 53 62 64 61 58 58 56 49 40 39 45 50 53 55 57 57 45 46 51 47 32 30 32 35

GFSCGP_700_rhum_180.txt.gz
RH
19 28 39 42 38 41 39 43 58 47 48 76 75 75 40 34 44 55 54 57 58 58 49 45 44 39 32 28 25 33 22 15 11 9 9 12 24 94 98 100 100 80 30 13
27 28 37 33 34 40 45 57 44 56 58 75 71 66 40 39 49 54 52 52 47 49 49 41 36 37 42 32 24 39 29 22 17 14 12 11 34 99 99 98 95 75 27 11
24 26 32 35 34 44 46 47 55 70 65 78 70 60 46 35 40 44 43 48 59 70 60 36 42 55 58 47 30 38 31 29 23 23 19 22 51 92 99 99 99 49 23 10
21 25 30 31 36 54 59 51 58 64 85 94 89 88 68 49 47 43 46 56 54 57 57 48 43 46 53 66 35 29 28 51 38 27 17 22 37 67 94 98 92 64 20 9
21 27 31 35 38 46 41 61 70 72 82 89 43 97 62 54 47 44 44 47 57 67 64 53 50 51 57 64 40 31 32 38 42 42 23 25 50 83 99 99 97 30 14 10
24 24 30 38 42 47 60 80 67 50 76 98 47 86 68 50 41 44 45 48 52 54 59 66 60 54 56 66 43 37 39 48 47 43 25 37 61 98 89 100 81 25 14 10
30 29 42 47 47 55 64 73 83 84 95 82 47 59 47 40 44 45 50 55 59 54 66 70 95 98 78 76 45 36 44 56 49 36 44 42 88 99 97 100 76 23 12 12
51 50 51 48 55 69 75 84 92 97 90 77 68 66 46 42 47 49 53 58 61 64 72 66 82 98 95 72 35 40 53 53 46 55 84 76 100 100 100 100 30 20 18 20
53 57 48 54 63 67 70 75 82 96 83 83 56 44 39 43 44 55 63 66 75 86 87 70 78 95 77 49 38 42 48 59 65 94 98 98 100 99 100 86 40 22 29 24
44 53 38 52 54 65 69 74 82 81 97 90 58 55 46 47 63 73 66 70 91 100 100 99 82 81 64 59 48 50 55 80 97 89 96 100 99 100 99 94 45 26 29 23
42 65 46 59 53 66 72 70 76 88 92 96 92 60 42 54 67 73 76 70 94 98 99 94 87 93 83 44 42 59 68 84 95 100 100 100 99 100 92 42 39 34 29 25
54 64 72 43 44 47 53 41 59 70 73 71 80 77 46 52 70 72 91 94 94 98 98 98 97 95 68 35 48 68 91 94 99 99 79 98 99 99 38 63 44 35 31 27
66 65 68 45 47 54 57 59 62 64 64 70 88 68 45 61 60 60 98 98 95 98 98 100 98 85 39 44 91 96 99 98 100 100 99 97 99 92 45 42 42 35 33 33
51 58 60 58 44 54 70 59 68 74 70 74 73 70 55 54 60 92 98 95 99 100 100 99 95 51 88 99 98 99 100 99 99 99 98 97 97 70 46 49 44 40 38 36
74 73 63 65 63 50 56 47 44 62 61 71 49 66 45 52 54 98 98 97 98 93 98 100 98 99 100 99 100 96 99 99 99 99 96 98 92 70 55 50 52 52 44 33
72 82 74 60 40 54 56 44 48 38 41 48 52 46 38 36 43 94 98 90 98 93 64 96 100 99 99 99 100 99 100 99 98 98 98 98 95 76 64 72 63 48 36 29
80 89 91 79 50 47 47 44 33 32 32 40 45 42 38 39 38 85 98 99 95 97 77 100 99 99 100 100 100 100 99 98 97 95 93 97 97 97 97 81 54 39 30 28
83 84 96 88 62 76 40 44 39 34 33 35 37 40 32 42 43 86 98 99 99 99 99 98 98 99 99 99 99 100 99 100 100 97 97 96 97 88 66 59 44 42 65 36
64 80 92 82 75 52 40 33 32 36 28 35 36 30 33 39 38 79 100 99 98 96 98 97 98 98 98 98 99 100 99 100 99 98 98 97 96 73 58 47 34 31 32 34
59 94 98 76 81 71 44 38 37 35 35 41 34 31 33 40 31 66 100 100 99 99 98 98 98 99 98 98 98 99 98 99 99 98 96 96 86 67 43 34 31 35 36 34
71 100 96 94 84 61 40 38 34 36 35 28 24 25 32 42 33 72 100 100 98 96 99 99 98 98 97 97 99 98 98 97 96 98 98 97 87 57 36 36 40 38 37 36
44 72 90 100 90 74 34 34 32 34 37 30 23 25 33 41 40 90 98 99 99 99 100 100 99 98 99 97 97 98 98 98 98 98 95 91 77 52 41 42 41 39 41 46
47 43 42 41 36 36 35 34 29 27 36 41 32 33 36 38 47 96 85 79 98 100 97 99 98 98 98 99 98 98 98 97 96 95 57 42 41 44 45 44 42 43 48 46
41 40 49 42 32 35 35 30 27 30 39 42 38 37 36 37 40 79 90 82 84 94 96 98 98 98 98 100 94 93 77 63 42 37 39 45 48 50 48 43 43 50 46 28
43 39 36 31 30 34 31 27 31 31 38 39 38 34 33 34 34 57 90 81 88 79 75 98 100 100 93 96 88 61 56 39 38 44 49 51 53 53 46 46 52 50 30 29
48 38 31 28 33 29 22 22 32 34 41 36 36 34 36 35 36 43 55 64 64 85 68 67 73 78 70 61 59 48 38 41 48 51 54 57 58 50 45 50 53 34 30 32

GFSCGP_700_rhum_183.txt.gz
RH
11 16 20 25 32 36 36 39 33 28 24 25 18 45 22 34 29 42 39 36 40 42 45 42 40 44 36 32 35 36 25 23 28 22 14 13 17 17 14 90 100 100 100 99
12 16 19 24 32 36 34 38 30 29 27 53 27 56 24 35 34 41 45 44 44 48 49 44 39 39 38 40 45 51 36 22 25 31 23 18 16 17 16 31 51 62 99 84
12 18 21 26 28 36 35 36 39 49 42 44 51 63 22 31 37 40 44 45 49 52 50 46 40 37 47 50 49 47 53 37 24 44 34 25 23 18 18 79 87 55 98 96
14 16 19 24 29 38 39 44 51 57 78 91 68 90 32 41 36 41 45 46 51 48 48 51 53 59 62 62 61 59 50 57 34 46 40 29 24 22 15 28 99 94 95 87
16 18 19 26 33 41 42 55 63 56 66 88 47 93 47 39 35 44 46 46 46 48 52 57 56 49 46 46 44 47 52 55 42 39 42 51 30 26 32 39 100 100 98 87
16 18 20 25 31 43 48 57 43 46 71 98 47 68 46 34 42 48 50 48 50 53 54 52 53 50 46 54 51 48 44 58 38 34 45 41 32 22 26 41 94 100 100 77
16 18 22 31 35 43 60 56 75 77 84 74 47 62 33 37 51 52 49 56 64 63 56 55 57 57 52 63 73 70 66 60 37 66 42 50 42 27 71 59 98 99 100 84
24 26 23 32 42 52 69 66 71 100 94 70 70 78 39 42 45 42 47 60 61 64 65 56 64 52 52 57 90 76 89 58 52 54 55 45 40 42 60 97 97 100 100 31
31 42 26 32 43 57 68 63 75 88 83 99 65 47 40 35 40 50 66 73 73 79 66 74 92 72 67 74 81 87 79 58 60 59 58 46 39 99 86 100 99 100 100 36
40 46 23 37 35 43 65 73 72 77 100 93 69 54 45 37 48 66 71 78 86 81 96 96 95 80 89 89 86 74 60 61 64 60 63 99 94 76 100 99 99 100 84 26
40 53 37 39 28 43 64 79 81 86 82 98 100 59 34 42 59 73 77 76 93 99 94 99 96 94 97 80 83 70 60 62 67 76 94 100 97 100 100 100 99 47 27 34
48 50 63 38 25 48 61 57 66 59 73 79 76 74 33 40 49 61 61 96 98 99 96 93 99 98 86 74 70 68 67 72 88 93 89 98 100 99 100 100 71 35 39 34
48 69 72 35 34 45 54 58 62 71 79 80 85 64 30 36 52 66 46 90 97 98 97 94 98 98 99 68 47 57 75 70 99 81 98 99 99 99 99 99 77 46 46 34
60 68 70 60 44 52 62 47 54 83 84 77 75 49 29 38 59 55 46 95 100 99 98 95 99 80 50 54 82 87 88 100 98 98 99 100 99 98 99 98 76 39 43 38
68 74 78 68 62 65 54 49 33 61 54 85 34 49 31 47 50 45 66 97 100 100 100 99 91 97 97 100 100 98 99 98 99 98 98 98 97 96 79 55 46 51 46 37
98 94 83 79 62 59 60 25 28 38 34 41 38 38 41 40 42 44 93 90 100 92 97 96 93 95 98 99 99 99 98 98 98 98 98 97 96 83 57 54 49 45 40 39
100 99 96 89 74 77 34 37 40 40 41 36 43 31 38 35 39 53 89 99 100 97 50 97 92 99 98 96 99 100 98 98 96 98 98 98 96 97 91 65 57 48 38 32
96 97 98 92 83 86 33 34 39 39 31 34 34 34 38 41 41 57 86 98 97 89 78 78 98 92 97 98 96 99 98 98 96 97 96 96 95 98 99 89 57 42 36 30
72 94 98 89 82 68 21 31 33 39 28 36 35 26 25 31 42 51 90 98 98 97 98 98 98 99 100 98 99 98 95 97 99 98 97 97 98 98 98 96 61 40 76 89
72 90 90 88 92 84 24 40 44 46 32 28 29 23 25 32 37 62 98 98 98 99 98 98 98 98 100 100 98 98 98 98 98 98 98 98 97 98 94 53 84 85 41 34
76 94 94 91 94 75 26 35 45 42 34 37 39 25 30 36 41 98 97 100 99 99 98 96 99 98 98 98 99 98 98 98 98 98 98 96 92 95 77 55 43 40 36 36
71 90 92 97 95 88 34 44 42 32 28 31 42 38 36 36 46 87 98 100 99 95 98 98 91 95 99 96 98 98 98 96 97 96 96 96 92 69 47 44 42 38 38 41
90 63 76 60 42 33 44 38 37 35 29 34 41 39 37 34 38 84 79 99 89 86 91 96 86 80 96 100 98 97 97 97 97 97 98 96 80 52 49 44 40 40 41 48
75 72 64 69 54 38 32 44 40 30 32 36 40 38 34 33 37 72 85 90 98 98 100 100 98 95 97 97 98 98 98 97 97 97 94 74 52 49 45 42 43 46 50 42
82 76 64 60 51 43 36 37 36 32 34 40 39 37 33 33 37 51 88 91 85 83 97 100 100 99 97 97 98 97 95 80 56 51 46 47 48 47 46 44 46 51 47 29
84 89 81 64 49 44 32 35 37 30 35 42 37 36 34 38 35 40 56 74 89 85 74 97 100 100 100 100 88 96 59 43 42 47 50 52 52 51 47 47 49 51 35 29

GFSCGP_700_rhum_189.txt.gz
RH
9 8 10 11 12 14 17 18 20 18 27 23 20 18 12 16 23 30 30 23 32 38 41 41 42 43 46 47 44 41 42 43 39 38 36 29 22 22 17 12 10 10 32 78
8 7 9 12 14 16 18 19 19 20 27 31 19 18 13 16 23 28 25 29 38 43 41 41 42 43 45 46 50 49 45 41 40 41 44 42 37 24 24 22 14 11 11 28
8 8 9 12 13 19 20 21 26 31 35 29 24 20 17 19 24 26 37 40 39 35 38 50 54 55 56 60 61 59 56 54 53 47 48 43 42 42 27 24 24 17 13 16
8 10 10 13 14 24 21 25 29 37 59 53 37 57 21 18 20 27 32 36 36 37 42 46 50 55 60 60 61 59 60 62 52 54 50 44 39 40 43 29 30 28 17 18
12 9 12 10 18 24 30 30 36 42 50 51 46 76 22 24 23 26 30 34 39 45 43 44 46 49 48 47 49 46 48 57 61 61 57 55 48 46 43 44 34 33 26 16
9 12 12 12 21 23 29 31 36 41 48 84 46 55 26 23 26 28 31 38 42 43 45 49 53 57 54 47 50 53 47 45 51 58 54 55 54 50 44 46 35 35 26 22
12 12 14 16 21 22 38 44 51 59 65 67 54 58 27 26 30 29 35 39 42 44 48 53 60 57 68 80 63 56 42 40 46 45 48 46 41 40 44 49 40 35 26 26
20 15 17 28 21 36 43 58 63 69 82 71 65 74 23 25 26 33 39 42 44 47 46 55 66 55 57 83 81 67 52 46 48 45 49 60 77 49 65 57 40 44 34 32
27 27 26 23 27 43 56 59 67 75 87 94 60 45 26 26 34 41 43 47 47 41 48 62 77 70 75 87 92 89 75 67 63 65 79 80 94 80 84 61 44 48 38 41
36 44 40 32 30 41 45 68 77 83 99 95 66 59 34 25 32 43 42 46 38 42 59 87 64 85 89 90 96 94 93 83 82 85 83 93 98 94 94 83 75 42 42 100
45 53 50 50 45 43 52 74 77 86 85 99 99 53 29 26 39 38 41 42 39 44 71 61 62 87 98 99 100 94 85 90 93 96 98 97 98 94 87 79 88 88 86 100
47 58 66 64 50 50 55 68 70 80 82 94 100 72 26 29 33 41 42 39 42 48 77 61 57 88 99 100 90 84 74 77 82 94 96 97 94 90 72 75 91 82 98 99
73 68 76 65 56 55 61 64 63 66 74 81 90 61 16 29 38 42 40 40 42 48 86 69 56 56 71 73 76 73 73 69 81 89 88 91 91 82 95 94 76 97 80 100
80 80 82 84 70 69 78 81 77 84 96 85 80 59 27 30 45 40 39 47 40 47 95 66 68 71 88 97 100 86 67 64 83 72 72 82 85 100 89 98 82 98 98 100
76 86 87 74 79 84 86 87 80 78 63 99 39 63 30 36 43 37 43 46 44 84 100 60 81 73 92 87 96 97 96 89 83 78 79 91 99 95 88 98 79 85 99 98
92 94 99 96 86 78 76 77 54 53 60 79 56 42 40 36 38 32 36 50 98 100 100 62 67 76 99 92 92 98 98 98 96 88 98 98 99 93 96 100 86 99 99 98
94 95 95 94 87 86 88 45 54 53 51 46 44 36 39 41 36 36 69 97 98 90 99 79 59 75 83 88 92 97 90 95 98 98 98 98 98 98 100 98 98 99 97 97
70 75 92 97 91 77 54 58 59 61 45 40 30 36 37 43 43 44 93 94 99 99 99 95 58 77 100 92 99 98 99 100 98 98 98 95 95 98 98 98 97 97 94 85
38 41 82 87 80 65 59 40 47 57 34 36 37 34 36 42 42 46 88 97 100 95 99 100 100 87 96 98 99 98 98 98 98 98 98 98 98 98 97 97 97 96 82 74
62 59 86 84 94 93 55 46 51 52 44 43 42 44 40 42 42 43 75 97 92 98 98 99 98 100 97 98 98 100 97 98 98 96 96 96 97 97 97 96 94 92 95 64
57 70 98 97 95 82 69 51 61 71 45 51 49 51 52 44 44 43 80 88 82 84 96 97 96 98 100 100 98 100 99 98 98 96 97 96 96 96 96 94 93 57 48 38
48 56 62 88 99 87 61 53 61 59 52 47 50 48 55 46 44 45 81 92 81 74 90 97 97 100 99 96 96 93 100 99 97 96 97 97 95 95 95 95 92 70 44 64
75 44 43 51 55 46 63 73 68 67 61 50 55 48 45 55 44 46 82 99 88 78 78 94 98 100 98 100 100 97 96 97 97 97 97 96 97 95 93 92 82 89 94 78
94 78 80 74 60 53 46 28 35 36 37 46 50 46 43 48 43 45 75 92 97 85 78 85 96 96 96 97 97 99 95 96 97 98 95 96 97 96 95 90 64 75 81 92
48 93 97 96 79 51 45 40 44 40 35 47 49 46 40 47 42 44 63 94 96 94 87 77 85 90 84 85 87 98 98 90 90 95 96 96 96 92 82 88 94 92 73 54
41 30 65 82 51 49 36 43 46 55 44 45 48 45 47 46 42 45 57 88 97 99 98 93 83 81 91 94 96 97 97 96 98 98 96 96 96 95 95 91 73 53 51 47

GFSCGP_700_rhum_192.txt.gz
RH
9 8 7 9 10 10 12 14 14 16 20 14 14 9 9 14 12 14 18 20 24 26 30 34 36 38 40 41 43 47 48 44 44 46 48 44 39 36 28 22 17 15 10 11
9 8 8 9 11 10 14 15 14 17 15 18 12 8 12 15 14 17 19 23 28 30 32 33 37 38 40 42 45 50 52 50 48 46 47 45 43 40 36 28 25 18 14 12
9 8 8 9 12 11 13 16 18 24 17 15 20 10 9 17 17 19 21 27 31 33 34 36 38 42 42 44 44 46 52 55 57 55 50 47 47 39 38 38 31 28 21 15
9 9 9 8 12 12 16 17 20 22 26 48 31 52 10 14 17 18 24 28 32 37 37 39 46 42 43 43 42 46 47 48 50 62 60 49 43 44 42 41 43 40 34 27
12 11 10 10 13 18 23 19 24 19 36 47 37 62 15 16 21 26 26 29 33 36 40 40 41 43 46 52 56 50 38 37 45 47 57 58 54 48 45 45 44 44 42 35
13 10 10 12 16 22 17 25 19 27 44 81 46 47 16 20 24 25 27 30 35 38 42 41 42 50 60 62 44 34 36 57 57 51 48 50 55 55 51 47 51 48 46 43
12 10 14 17 24 20 24 26 34 55 61 64 47 64 17 18 26 29 34 34 38 45 43 39 49 53 42 38 42 46 52 60 67 58 50 46 52 59 55 52 58 57 49 45
18 14 17 27 28 30 31 33 40 74 82 71 69 71 16 12 23 30 35 38 41 45 40 38 40 60 44 57 62 64 80 81 77 61 49 42 48 60 60 58 63 53 50 50
23 22 24 30 25 33 47 48 58 68 83 97 63 37 22 14 19 28 36 40 46 47 36 37 38 69 50 67 85 72 81 90 89 77 68 55 52 65 58 60 59 59 65 52
36 31 32 32 33 34 39 58 64 81 98 99 68 52 33 14 20 28 34 42 50 42 36 40 41 78 49 66 84 99 98 96 89 81 82 86 74 98 88 71 64 85 67 58
49 53 45 47 42 42 48 69 72 82 85 99 99 58 34 22 23 30 39 45 45 46 40 41 54 85 56 64 76 86 93 84 89 94 96 100 96 93 98 93 99 95 74 76
52 62 65 59 61 58 58 65 72 78 86 97 99 70 36 27 30 37 40 33 45 44 47 51 78 77 68 70 68 66 76 78 83 94 99 98 95 96 98 89 92 94 100 79
60 69 75 65 61 59 68 68 71 75 80 82 88 65 37 26 37 38 37 40 40 47 89 85 94 68 82 89 92 95 65 72 77 77 94 98 98 98 99 95 99 95 95 96
85 80 83 74 59 64 70 69 66 71 84 82 88 74 35 35 44 42 42 39 43 98 96 90 84 68 72 95 100 88 97 90 82 79 88 96 97 98 93 76 99 99 98 85
84 91 88 86 85 81 76 87 86 90 77 95 54 74 36 44 45 44 44 41 89 96 96 94 88 72 71 91 93 98 98 98 98 75 76 80 90 92 86 98 97 85 78 98
87 88 93 95 85 84 83 84 69 68 64 56 54 58 47 43 42 46 42 47 87 100 100 100 99 96 88 95 96 91 87 98 96 95 77 75 88 82 100 96 98 82 98 77
97 87 93 95 91 90 83 45 43 56 59 60 61 48 45 49 44 46 42 54 93 90 98 100 95 76 94 97 93 69 69 94 98 86 98 100 100 99 98 98 83 93 94 95
70 72 80 88 86 96 53 46 59 66 54 54 53 53 57 58 48 47 44 55 97 81 97 99 99 97 100 98 83 70 59 64 93 98 96 99 100 98 98 100 99 84 100 98
39 45 80 76 79 64 53 42 42 63 56 47 60 52 51 54 50 50 45 54 98 81 90 98 98 99 100 95 91 96 87 88 99 89 97 98 98 99 99 98 98 98 98 98
64 56 91 85 94 90 56 57 65 57 46 55 50 54 52 48 50 57 52 51 98 84 84 99 98 98 98 98 100 96 97 99 98 96 96 97 98 98 98 98 97 97 97 97
45 94 100 100 95 76 61 41 55 78 50 51 50 52 56 55 56 58 58 55 98 85 82 96 98 98 97 100 98 93 95 96 97 98 100 97 97 98 97 96 97 97 94 70
30 30 51 87 95 85 46 42 57 54 60 59 57 49 44 49 49 52 53 54 98 88 80 95 98 98 97 98 89 89 89 95 98 98 99 98 97 97 96 94 90 94 93 94
62 40 43 52 46 28 39 56 52 68 72 62 54 48 36 43 45 48 48 55 98 94 80 95 98 100 100 98 96 90 94 98 96 97 95 96 96 98 96 95 94 88 76 65
96 88 94 83 64 56 44 34 44 46 48 40 38 32 31 39 41 48 47 58 98 95 78 89 96 97 98 97 96 97 96 96 97 96 96 96 96 96 96 96 95 88 93 94
46 42 43 32 28 59 59 54 46 43 40 40 37 42 39 41 48 48 47 62 98 98 85 84 91 94 91 94 94 95 96 96 94 98 96 96 96 96 95 95 96 96 95 95
44 38 33 25 18 23 25 28 63 61 33 40 46 46 48 46 49 48 48 63 92 98 97 88 85 87 88 90 95 97 96 96 97 96 98 98 97 95 94 93 91 87 90 91